Time,TemperatureF,DewpointF,PressureIn,WindDirection,WindDirectionDegrees,WindSpeedMPH,WindSpeedGustMPH,Humidity,HourlyPrecipIn,Conditions,Clouds,dailyrainin,SoftwareType,DateUTC
2013-04-09 00:00:00,70.4,45.0,29.88,SSW,211,4.0,4.0,40,0.00,,---,0.00,VWS V14.01,2013-04-09 04:00:00,
2013-04-09 00:05:00,70.3,44.9,29.89,SSW,204,5.0,6.0,40,0.00,,---,0.00,VWS V14.01,2013-04-09 04:05:00,
2013-04-09 00:10:00,69.9,45.2,29.89,SSW,202,6.0,9.0,41,0.00,,---,0.00,VWS V14.01,2013-04-09 04:10:00,
2013-04-09 00:15:00,69.8,45.1,29.89,SSW,205,1.0,4.0,41,0.00,,---,0.00,VWS V14.01,2013-04-09 04:15:00,
2013-04-09 00:20:00,69.6,44.9,29.89,South,188,0.0,2.0,41,0.00,,---,0.00,VWS V14.01,2013-04-09 04:20:00,
2013-04-09 00:25:00,69.4,44.7,29.89,SSW,198,2.0,6.0,41,0.00,,---,0.00,VWS V14.01,2013-04-09 04:25:00,
2013-04-09 00:30:00,69.3,44.6,29.89,SSW,207,2.0,4.0,41,0.00,,---,0.00,VWS V14.01,2013-04-09 04:30:00,
2013-04-09 00:35:00,69.3,44.6,29.90,SSW,211,3.0,5.0,41,0.00,,---,0.00,VWS V14.01,2013-04-09 04:35:00,
2013-04-09 00:36:00,69.3,44.6,29.90,SSW,211,0.0,5.0,41,0.00,,---,0.00,VWS V14.01,2013-04-09 04:36:00,
2013-04-09 00:40:00,69.1,44.4,29.90,SSW,211,0.0,0.0,41,0.00,,---,0.00,VWS V14.01,2013-04-09 04:40:00,
2013-04-09 00:41:00,69.1,44.4,29.90,SSW,211,3.0,4.0,41,0.00,,---,0.00,VWS V14.01,2013-04-09 04:41:00,
2013-04-09 00:45:00,68.9,44.9,29.90,SSW,211,2.0,2.0,42,0.00,,---,0.00,VWS V14.01,2013-04-09 04:45:00,
2013-04-09 00:46:00,68.9,44.2,29.90,SSW,211,0.0,0.0,41,0.00,,---,0.00,VWS V14.01,2013-04-09 04:46:00,
2013-04-09 00:50:00,68.9,44.9,29.91,SSW,211,1.0,1.0,42,0.00,,---,0.00,VWS V14.01,2013-04-09 04:50:00,
2013-04-09 00:51:00,68.9,44.9,29.91,SSW,211,2.0,2.0,42,0.00,,---,0.00,VWS V14.01,2013-04-09 04:51:00,
2013-04-09 00:52:00,68.8,44.8,29.91,SSW,211,0.0,1.0,42,0.00,,---,0.00,VWS V14.01,2013-04-09 04:52:00,
2013-04-09 00:55:00,68.8,44.8,29.91,SW,224,3.0,6.0,42,0.00,,---,0.00,VWS V14.01,2013-04-09 04:55:00,
2013-04-09 00:57:00,68.6,44.6,29.91,SW,227,12.0,12.0,42,0.00,,---,0.00,VWS V14.01,2013-04-09 04:57:00,
2013-04-09 01:00:00,68.6,44.6,29.91,SW,218,5.0,5.0,42,0.00,,---,0.00,VWS V14.01,2013-04-09 05:00:00,
2013-04-09 01:02:00,68.4,44.4,29.91,SW,223,4.0,5.0,42,0.00,,---,0.00,VWS V14.01,2013-04-09 05:02:00,
2013-04-09 01:05:00,68.4,45.0,29.91,WSW,258,1.0,1.0,43,0.00,,---,0.00,VWS V14.01,2013-04-09 05:05:00,
2013-04-09 01:07:00,68.4,45.0,29.91,SW,236,4.0,4.0,43,0.00,,---,0.00,VWS V14.01,2013-04-09 05:07:00,
2013-04-09 01:10:00,68.4,45.0,29.91,WSW,252,6.0,12.0,43,0.00,,---,0.00,VWS V14.01,2013-04-09 05:10:00,
2013-04-09 01:12:00,68.6,45.2,29.91,SW,223,6.0,6.0,43,0.00,,---,0.00,VWS V14.01,2013-04-09 05:12:00,
2013-04-09 01:15:00,68.6,45.2,29.91,West,280,7.0,7.0,43,0.00,,---,0.00,VWS V14.01,2013-04-09 05:15:00,
2013-04-09 01:17:00,68.6,45.2,29.91,WNW,284,6.0,10.0,43,0.00,,---,0.00,VWS V14.01,2013-04-09 05:17:00,
2013-04-09 01:20:00,68.9,45.5,29.91,West,274,3.0,11.0,43,0.00,,---,0.00,VWS V14.01,2013-04-09 05:20:00,
2013-04-09 01:22:00,68.9,45.5,29.91,WSW,246,5.0,7.0,43,0.00,,---,0.00,VWS V14.01,2013-04-09 05:22:00,
2013-04-09 01:26:00,69.1,45.7,29.91,West,263,0.0,6.0,43,0.00,,---,0.00,VWS V14.01,2013-04-09 05:26:00,
2013-04-09 01:27:00,69.1,45.1,29.91,WSW,257,3.0,4.0,42,0.00,,---,0.00,VWS V14.01,2013-04-09 05:27:00,
2013-04-09 01:31:00,69.1,45.7,29.91,WSW,257,3.0,3.0,43,0.00,,---,0.00,VWS V14.01,2013-04-09 05:31:00,
2013-04-09 01:32:00,69.1,45.7,29.91,WSW,245,3.0,3.0,43,0.00,,---,0.00,VWS V14.01,2013-04-09 05:32:00,
2013-04-09 01:36:00,69.1,45.7,29.91,West,261,0.0,1.0,43,0.00,,---,0.00,VWS V14.01,2013-04-09 05:36:00,
2013-04-09 01:37:00,68.9,45.5,29.91,WSW,241,5.0,5.0,43,0.00,,---,0.00,VWS V14.01,2013-04-09 05:37:00,
2013-04-09 01:38:00,68.9,45.5,29.91,SW,223,1.0,2.0,43,0.00,,---,0.00,VWS V14.01,2013-04-09 05:38:00,
2013-04-09 01:41:00,68.9,45.5,29.91,WSW,250,5.0,6.0,43,0.00,,---,0.00,VWS V14.01,2013-04-09 05:41:00,
2013-04-09 01:42:00,68.9,45.5,29.91,WSW,247,2.0,3.0,43,0.00,,---,0.00,VWS V14.01,2013-04-09 05:42:00,
2013-04-09 01:43:00,68.9,45.5,29.91,WSW,247,0.0,1.0,43,0.00,,---,0.00,VWS V14.01,2013-04-09 05:43:00,
2013-04-09 01:46:00,68.9,45.5,29.91,West,271,4.0,4.0,43,0.00,,---,0.00,VWS V14.01,2013-04-09 05:46:00,
2013-04-09 01:47:00,68.8,45.4,29.91,West,271,3.0,4.0,43,0.00,,---,0.00,VWS V14.01,2013-04-09 05:47:00,
2013-04-09 01:48:00,68.8,45.4,29.91,West,271,5.0,5.0,43,0.00,,---,0.00,VWS V14.01,2013-04-09 05:48:00,
2013-04-09 01:51:00,68.8,45.4,29.91,WSW,255,5.0,5.0,43,0.00,,---,0.00,VWS V14.01,2013-04-09 05:51:00,
2013-04-09 01:52:00,68.6,45.2,29.91,WSW,245,7.0,9.0,43,0.00,,---,0.00,VWS V14.01,2013-04-09 05:52:00,
2013-04-09 01:53:00,68.6,45.8,29.91,West,263,0.0,2.0,44,0.00,,---,0.00,VWS V14.01,2013-04-09 05:53:00,
2013-04-09 01:56:00,68.4,45.7,29.91,WSW,248,0.0,3.0,44,0.00,,---,0.00,VWS V14.01,2013-04-09 05:56:00,
2013-04-09 01:57:00,68.4,45.7,29.91,WSW,248,2.0,5.0,44,0.00,,---,0.00,VWS V14.01,2013-04-09 05:57:00,
2013-04-09 01:58:00,68.4,45.7,29.91,SW,229,0.0,6.0,44,0.00,,---,0.00,VWS V14.01,2013-04-09 05:58:00,
2013-04-09 02:02:00,68.3,45.6,29.91,SW,230,0.0,0.0,44,0.00,,---,0.00,VWS V14.01,2013-04-09 06:02:00,
2013-04-09 02:03:00,68.3,45.6,29.91,WSW,255,0.0,5.0,44,0.00,,---,0.00,VWS V14.01,2013-04-09 06:03:00,
2013-04-09 02:07:00,68.1,45.4,29.91,WSW,255,0.0,0.0,44,0.00,,---,0.00,VWS V14.01,2013-04-09 06:07:00,
2013-04-09 02:08:00,68.1,45.4,29.91,WSW,255,1.0,1.0,44,0.00,,---,0.00,VWS V14.01,2013-04-09 06:08:00,
2013-04-09 02:12:00,67.9,45.2,29.91,WSW,255,0.0,0.0,44,0.00,,---,0.00,VWS V14.01,2013-04-09 06:12:00,
2013-04-09 02:14:00,67.9,45.2,29.91,WSW,255,0.0,0.0,44,0.00,,---,0.00,VWS V14.01,2013-04-09 06:14:00,
2013-04-09 02:17:00,67.8,45.7,29.91,WSW,255,0.0,4.0,45,0.00,,---,0.00,VWS V14.01,2013-04-09 06:17:00,
2013-04-09 02:19:00,67.6,45.5,29.91,WSW,255,0.0,0.0,45,0.00,,---,0.00,VWS V14.01,2013-04-09 06:19:00,
2013-04-09 02:22:00,67.4,45.3,29.91,WSW,252,0.0,0.0,45,0.00,,---,0.00,VWS V14.01,2013-04-09 06:22:00,
2013-04-09 02:23:00,67.4,45.3,29.91,WSW,252,0.0,0.0,45,0.00,,---,0.00,VWS V14.01,2013-04-09 06:23:00,
2013-04-09 02:24:00,67.4,45.3,29.91,WSW,252,0.0,1.0,45,0.00,,---,0.00,VWS V14.01,2013-04-09 06:24:00,
2013-04-09 02:27:00,67.3,45.2,29.91,WSW,252,1.0,2.0,45,0.00,,---,0.00,VWS V14.01,2013-04-09 06:27:00,
2013-04-09 02:28:00,67.3,45.2,29.91,WSW,252,1.0,2.0,45,0.00,,---,0.00,VWS V14.01,2013-04-09 06:28:00,
2013-04-09 02:29:00,67.3,45.2,29.91,WSW,252,0.0,0.0,45,0.00,,---,0.00,VWS V14.01,2013-04-09 06:29:00,
2013-04-09 02:32:00,67.1,45.7,29.90,WSW,244,1.0,4.0,46,0.00,,---,0.00,VWS V14.01,2013-04-09 06:32:00,
2013-04-09 02:33:00,67.1,45.7,29.90,WSW,244,0.0,0.0,46,0.00,,---,0.00,VWS V14.01,2013-04-09 06:33:00,
2013-04-09 02:34:00,66.9,45.5,29.90,WSW,244,0.0,1.0,46,0.00,,---,0.00,VWS V14.01,2013-04-09 06:34:00,
2013-04-09 02:37:00,66.8,45.4,29.90,WSW,244,2.0,5.0,46,0.00,,---,0.00,VWS V14.01,2013-04-09 06:37:00,
2013-04-09 02:38:00,66.8,45.4,29.90,WSW,244,3.0,3.0,46,0.00,,---,0.00,VWS V14.01,2013-04-09 06:38:00,
2013-04-09 02:39:00,66.8,45.4,29.90,SW,215,3.0,6.0,46,0.00,,---,0.00,VWS V14.01,2013-04-09 06:39:00,
2013-04-09 02:42:00,66.6,45.8,29.90,SW,215,0.0,0.0,47,0.00,,---,0.00,VWS V14.01,2013-04-09 06:42:00,
2013-04-09 02:43:00,66.6,45.8,29.90,SW,215,0.0,0.0,47,0.00,,---,0.00,VWS V14.01,2013-04-09 06:43:00,
2013-04-09 02:45:00,66.4,45.6,29.90,SW,215,0.0,1.0,47,0.00,,---,0.00,VWS V14.01,2013-04-09 06:45:00,
2013-04-09 02:47:00,66.4,45.6,29.91,SW,215,0.0,0.0,47,0.00,,---,0.00,VWS V14.01,2013-04-09 06:47:00,
2013-04-09 02:48:00,66.4,45.6,29.91,SW,215,0.0,0.0,47,0.00,,---,0.00,VWS V14.01,2013-04-09 06:48:00,
2013-04-09 02:49:00,66.3,45.5,29.91,SW,215,0.0,3.0,47,0.00,,---,0.00,VWS V14.01,2013-04-09 06:49:00,
2013-04-09 02:52:00,66.3,45.5,29.91,SW,222,3.0,6.0,47,0.00,,---,0.00,VWS V14.01,2013-04-09 06:52:00,
2013-04-09 02:53:00,66.3,45.5,29.91,SW,222,4.0,4.0,47,0.00,,---,0.00,VWS V14.01,2013-04-09 06:53:00,
2013-04-09 02:55:00,66.1,45.3,29.91,SW,236,0.0,0.0,47,0.00,,---,0.00,VWS V14.01,2013-04-09 06:55:00,
2013-04-09 02:57:00,66.0,45.2,29.91,SW,236,1.0,3.0,47,0.00,,---,0.00,VWS V14.01,2013-04-09 06:57:00,
2013-04-09 02:58:00,66.0,45.2,29.91,SW,236,2.0,3.0,47,0.00,,---,0.00,VWS V14.01,2013-04-09 06:58:00,
2013-04-09 03:00:00,66.0,45.2,29.91,SW,225,5.0,7.0,47,0.00,,---,0.00,VWS V14.01,2013-04-09 07:00:00,
2013-04-09 03:02:00,65.8,45.0,29.91,SW,225,0.0,4.0,47,0.00,,---,0.00,VWS V14.01,2013-04-09 07:02:00,
2013-04-09 03:03:00,65.8,45.0,29.91,SW,225,0.0,0.0,47,0.00,,---,0.00,VWS V14.01,2013-04-09 07:03:00,
2013-04-09 03:05:00,65.6,45.4,29.91,SW,225,0.0,1.0,48,0.00,,---,0.00,VWS V14.01,2013-04-09 07:05:00,
2013-04-09 03:08:00,65.6,45.4,29.91,SW,225,2.0,4.0,48,0.00,,---,0.00,VWS V14.01,2013-04-09 07:08:00,
2013-04-09 03:09:00,65.5,45.3,29.91,SW,225,2.0,3.0,48,0.00,,---,0.00,VWS V14.01,2013-04-09 07:09:00,
2013-04-09 03:10:00,65.5,45.3,29.91,SSW,209,11.0,11.0,48,0.00,,---,0.00,VWS V14.01,2013-04-09 07:10:00,
2013-04-09 03:13:00,65.5,45.3,29.91,SW,226,2.0,2.0,48,0.00,,---,0.00,VWS V14.01,2013-04-09 07:13:00,
2013-04-09 03:14:00,65.3,45.1,29.91,SW,226,1.0,2.0,48,0.00,,---,0.00,VWS V14.01,2013-04-09 07:14:00,
2013-04-09 03:15:00,65.3,45.1,29.91,SW,226,0.0,2.0,48,0.00,,---,0.00,VWS V14.01,2013-04-09 07:15:00,
2013-04-09 03:18:00,65.2,45.6,29.91,SW,226,0.0,0.0,49,0.00,,---,0.00,VWS V14.01,2013-04-09 07:18:00,
2013-04-09 03:19:00,65.2,45.0,29.91,SW,226,1.0,1.0,48,0.00,,---,0.00,VWS V14.01,2013-04-09 07:19:00,
2013-04-09 03:20:00,65.2,45.6,29.91,SW,226,0.0,1.0,49,0.00,,---,0.00,VWS V14.01,2013-04-09 07:20:00,
2013-04-09 03:23:00,65.0,45.4,29.91,WSW,255,5.0,5.0,49,0.00,,---,0.00,VWS V14.01,2013-04-09 07:23:00,
2013-04-09 03:24:00,65.0,45.4,29.91,WSW,244,0.0,3.0,49,0.00,,---,0.00,VWS V14.01,2013-04-09 07:24:00,
2013-04-09 03:25:00,65.0,45.4,29.91,WSW,244,0.0,2.0,49,0.00,,---,0.00,VWS V14.01,2013-04-09 07:25:00,
2013-04-09 03:26:00,65.0,45.4,29.91,WNW,283,5.0,7.0,49,0.00,,---,0.00,VWS V14.01,2013-04-09 07:26:00,
2013-04-09 03:28:00,64.8,45.7,29.91,WSW,238,1.0,1.0,50,0.00,,---,0.00,VWS V14.01,2013-04-09 07:28:00,
2013-04-09 03:29:00,64.8,45.7,29.91,WSW,237,3.0,6.0,50,0.00,,---,0.00,VWS V14.01,2013-04-09 07:29:00,
2013-04-09 03:30:00,64.8,45.7,29.91,SW,236,5.0,7.0,50,0.00,,---,0.00,VWS V14.01,2013-04-09 07:30:00,
2013-04-09 03:31:00,64.8,45.7,29.91,SW,236,5.0,5.0,50,0.00,,---,0.00,VWS V14.01,2013-04-09 07:31:00,
2013-04-09 03:33:00,64.7,45.7,29.92,SW,236,0.0,0.0,50,0.00,,---,0.00,VWS V14.01,2013-04-09 07:33:00,
2013-04-09 03:34:00,64.7,45.7,29.92,SW,236,1.0,1.0,50,0.00,,---,0.00,VWS V14.01,2013-04-09 07:34:00,
2013-04-09 03:35:00,64.5,45.5,29.92,SW,236,0.0,0.0,50,0.00,,---,0.00,VWS V14.01,2013-04-09 07:35:00,
2013-04-09 03:36:00,64.5,45.5,29.92,SW,236,4.0,4.0,50,0.00,,---,0.00,VWS V14.01,2013-04-09 07:36:00,
2013-04-09 03:38:00,64.5,46.0,29.92,WSW,251,5.0,7.0,51,0.00,,---,0.00,VWS V14.01,2013-04-09 07:38:00,
2013-04-09 03:39:00,64.5,46.0,29.92,WSW,252,4.0,13.0,51,0.00,,---,0.00,VWS V14.01,2013-04-09 07:39:00,
2013-04-09 03:40:00,64.5,46.5,29.92,SW,219,9.0,10.0,52,0.00,,---,0.00,VWS V14.01,2013-04-09 07:40:00,
2013-04-09 03:42:00,64.5,46.5,29.92,SW,226,4.0,4.0,52,0.00,,---,0.00,VWS V14.01,2013-04-09 07:42:00,
2013-04-09 03:43:00,64.7,46.7,29.92,SSW,213,6.0,6.0,52,0.00,,---,0.00,VWS V14.01,2013-04-09 07:43:00,
2013-04-09 03:44:00,64.7,46.2,29.92,SW,225,0.0,7.0,51,0.00,,---,0.00,VWS V14.01,2013-04-09 07:44:00,
2013-04-09 03:45:00,64.7,46.2,29.92,West,263,7.0,7.0,51,0.00,,---,0.00,VWS V14.01,2013-04-09 07:45:00,
2013-04-09 03:47:00,64.8,46.8,29.92,WSW,252,3.0,8.0,52,0.00,,---,0.00,VWS V14.01,2013-04-09 07:47:00,
2013-04-09 03:48:00,65.0,47.0,29.92,WSW,252,1.0,2.0,52,0.00,,---,0.00,VWS V14.01,2013-04-09 07:48:00,
2013-04-09 03:49:00,65.0,46.5,29.92,WSW,245,6.0,10.0,51,0.00,,---,0.00,VWS V14.01,2013-04-09 07:49:00,
2013-04-09 03:50:00,65.0,46.5,29.92,SSW,210,4.0,7.0,51,0.00,,---,0.00,VWS V14.01,2013-04-09 07:50:00,
2013-04-09 03:52:00,65.2,46.6,29.92,SW,234,1.0,1.0,51,0.00,,---,0.00,VWS V14.01,2013-04-09 07:52:00,
2013-04-09 03:53:00,65.2,46.6,29.92,SW,232,1.0,4.0,51,0.00,,---,0.00,VWS V14.01,2013-04-09 07:53:00,
2013-04-09 03:54:00,65.3,46.7,29.92,SW,225,4.0,5.0,51,0.00,,---,0.00,VWS V14.01,2013-04-09 07:54:00,
2013-04-09 03:55:00,65.3,46.7,29.92,WSW,244,9.0,13.0,51,0.00,,---,0.00,VWS V14.01,2013-04-09 07:55:00,
2013-04-09 03:58:00,65.5,46.9,29.92,SW,225,0.0,7.0,51,0.00,,---,0.00,VWS V14.01,2013-04-09 07:58:00,
2013-04-09 04:00:00,65.6,47.0,29.92,WSW,247,0.0,2.0,51,0.00,,---,0.00,VWS V14.01,2013-04-09 08:00:00,
2013-04-09 04:03:00,65.8,46.7,29.93,WSW,246,4.0,5.0,50,0.00,,---,0.00,VWS V14.01,2013-04-09 08:03:00,
2013-04-09 04:05:00,65.8,46.7,29.93,WSW,237,3.0,4.0,50,0.00,,---,0.00,VWS V14.01,2013-04-09 08:05:00,
2013-04-09 04:06:00,66.0,46.8,29.93,WSW,237,0.0,4.0,50,0.00,,---,0.00,VWS V14.01,2013-04-09 08:06:00,
2013-04-09 04:08:00,66.0,46.8,29.93,WSW,237,0.0,2.0,50,0.00,,---,0.00,VWS V14.01,2013-04-09 08:08:00,
2013-04-09 04:10:00,66.1,46.9,29.93,WSW,238,1.0,1.0,50,0.00,,---,0.00,VWS V14.01,2013-04-09 08:10:00,
2013-04-09 04:12:00,66.1,46.9,29.93,SSW,211,2.0,3.0,50,0.00,,---,0.00,VWS V14.01,2013-04-09 08:12:00,
2013-04-09 04:13:00,66.1,46.4,29.93,SSW,212,1.0,2.0,49,0.00,,---,0.00,VWS V14.01,2013-04-09 08:13:00,
2013-04-09 04:14:00,66.1,46.9,29.93,SSW,212,3.0,3.0,50,0.00,,---,0.00,VWS V14.01,2013-04-09 08:14:00,
2013-04-09 04:15:00,66.1,46.4,29.93,SSW,212,4.0,5.0,49,0.00,,---,0.00,VWS V14.01,2013-04-09 08:15:00,
2013-04-09 04:17:00,66.3,47.1,29.93,West,275,6.0,12.0,50,0.00,,---,0.00,VWS V14.01,2013-04-09 08:17:00,
2013-04-09 04:18:00,66.3,47.1,29.93,West,259,3.0,3.0,50,0.00,,---,0.00,VWS V14.01,2013-04-09 08:18:00,
2013-04-09 04:19:00,66.3,47.1,29.93,WSW,245,2.0,2.0,50,0.00,,---,0.00,VWS V14.01,2013-04-09 08:19:00,
2013-04-09 04:20:00,66.3,47.1,29.93,WSW,245,1.0,1.0,50,0.00,,---,0.00,VWS V14.01,2013-04-09 08:20:00,
2013-04-09 04:22:00,66.3,47.1,29.93,WSW,245,5.0,5.0,50,0.00,,---,0.00,VWS V14.01,2013-04-09 08:22:00,
2013-04-09 04:23:00,66.3,47.1,29.93,WNW,282,0.0,1.0,50,0.00,,---,0.00,VWS V14.01,2013-04-09 08:23:00,
2013-04-09 04:25:00,66.3,47.1,29.93,West,263,3.0,3.0,50,0.00,,---,0.00,VWS V14.01,2013-04-09 08:25:00,
2013-04-09 04:27:00,66.3,47.1,29.93,WSW,258,1.0,2.0,50,0.00,,---,0.00,VWS V14.01,2013-04-09 08:27:00,
2013-04-09 04:28:00,66.3,47.1,29.93,WSW,258,1.0,3.0,50,0.00,,---,0.00,VWS V14.01,2013-04-09 08:28:00,
2013-04-09 04:30:00,66.3,47.1,29.93,WSW,258,3.0,3.0,50,0.00,,---,0.00,VWS V14.01,2013-04-09 08:30:00,
2013-04-09 04:32:00,66.3,47.1,29.94,WSW,258,0.0,0.0,50,0.00,,---,0.00,VWS V14.01,2013-04-09 08:32:00,
2013-04-09 04:33:00,66.3,47.1,29.94,WSW,256,6.0,11.0,50,0.00,,---,0.00,VWS V14.01,2013-04-09 08:33:00,
2013-04-09 04:35:00,66.3,47.1,29.94,SW,227,0.0,2.0,50,0.00,,---,0.00,VWS V14.01,2013-04-09 08:35:00,
2013-04-09 04:37:00,66.3,47.1,29.94,WSW,243,3.0,7.0,50,0.00,,---,0.00,VWS V14.01,2013-04-09 08:37:00,
2013-04-09 04:38:00,66.3,47.1,29.94,SSW,205,0.0,4.0,50,0.00,,---,0.00,VWS V14.01,2013-04-09 08:38:00,
2013-04-09 04:40:00,66.3,47.1,29.94,SW,217,7.0,7.0,50,0.00,,---,0.00,VWS V14.01,2013-04-09 08:40:00,
2013-04-09 04:42:00,66.3,47.1,29.94,SW,217,0.0,2.0,50,0.00,,---,0.00,VWS V14.01,2013-04-09 08:42:00,
2013-04-09 04:43:00,66.3,47.1,29.94,SW,228,4.0,5.0,50,0.00,,---,0.00,VWS V14.01,2013-04-09 08:43:00,
2013-04-09 04:45:00,66.3,47.1,29.94,SW,228,0.0,0.0,50,0.00,,---,0.00,VWS V14.01,2013-04-09 08:45:00,
2013-04-09 04:47:00,66.3,47.1,29.94,SW,227,5.0,5.0,50,0.00,,---,0.00,VWS V14.01,2013-04-09 08:47:00,
2013-04-09 04:48:00,66.3,47.1,29.94,South,189,4.0,8.0,50,0.00,,---,0.00,VWS V14.01,2013-04-09 08:48:00,
2013-04-09 04:50:00,66.3,47.1,29.94,WSW,244,3.0,4.0,50,0.00,,---,0.00,VWS V14.01,2013-04-09 08:50:00,
2013-04-09 04:52:00,66.1,46.9,29.94,WSW,241,2.0,4.0,50,0.00,,---,0.00,VWS V14.01,2013-04-09 08:52:00,
2013-04-09 04:53:00,66.1,46.9,29.94,SW,226,10.0,13.0,50,0.00,,---,0.00,VWS V14.01,2013-04-09 08:53:00,
2013-04-09 04:55:00,66.1,47.5,29.94,SW,215,2.0,4.0,51,0.00,,---,0.00,VWS V14.01,2013-04-09 08:55:00,
2013-04-09 04:57:00,66.1,47.5,29.94,SW,215,9.0,12.0,51,0.00,,---,0.00,VWS V14.01,2013-04-09 08:57:00,
2013-04-09 04:58:00,66.1,47.5,29.94,SSW,206,9.0,10.0,51,0.00,,---,0.00,VWS V14.01,2013-04-09 08:58:00,
2013-04-09 05:00:00,66.1,47.5,29.94,WSW,242,0.0,4.0,51,0.00,,---,0.00,VWS V14.01,2013-04-09 09:00:00,
2013-04-09 05:02:00,66.1,47.5,29.94,WSW,239,6.0,6.0,51,0.00,,---,0.00,VWS V14.01,2013-04-09 09:02:00,
2013-04-09 05:04:00,66.0,47.4,29.94,SW,224,4.0,6.0,51,0.00,,---,0.00,VWS V14.01,2013-04-09 09:04:00,
2013-04-09 05:05:00,66.0,47.4,29.94,SW,224,1.0,4.0,51,0.00,,---,0.00,VWS V14.01,2013-04-09 09:05:00,
2013-04-09 05:07:00,66.0,47.4,29.94,SW,219,4.0,7.0,51,0.00,,---,0.00,VWS V14.01,2013-04-09 09:07:00,
2013-04-09 05:10:00,66.0,47.4,29.94,SW,220,2.0,3.0,51,0.00,,---,0.00,VWS V14.01,2013-04-09 09:10:00,
2013-04-09 05:12:00,66.0,47.4,29.94,SW,216,4.0,5.0,51,0.00,,---,0.00,VWS V14.01,2013-04-09 09:12:00,
2013-04-09 05:15:00,66.0,47.9,29.94,SW,235,0.0,3.0,52,0.00,,---,0.00,VWS V14.01,2013-04-09 09:15:00,
2013-04-09 05:18:00,66.0,47.4,29.95,SSW,198,2.0,5.0,51,0.00,,---,0.00,VWS V14.01,2013-04-09 09:18:00,
2013-04-09 05:20:00,66.0,47.9,29.95,West,269,2.0,4.0,52,0.00,,---,0.00,VWS V14.01,2013-04-09 09:20:00,
2013-04-09 05:21:00,66.0,47.9,29.95,West,261,4.0,6.0,52,0.00,,---,0.00,VWS V14.01,2013-04-09 09:21:00,
2013-04-09 05:23:00,66.0,47.9,29.95,West,261,2.0,4.0,52,0.00,,---,0.00,VWS V14.01,2013-04-09 09:23:00,
2013-04-09 05:25:00,66.0,47.9,29.95,WNW,290,1.0,6.0,52,0.00,,---,0.00,VWS V14.01,2013-04-09 09:25:00,
2013-04-09 05:26:00,66.0,47.9,29.95,WSW,238,9.0,9.0,52,0.00,,---,0.00,VWS V14.01,2013-04-09 09:26:00,
2013-04-09 05:28:00,65.8,47.7,29.95,West,260,2.0,5.0,52,0.00,,---,0.00,VWS V14.01,2013-04-09 09:28:00,
2013-04-09 05:30:00,65.8,47.7,29.95,WSW,257,0.0,9.0,52,0.00,,---,0.00,VWS V14.01,2013-04-09 09:30:00,
2013-04-09 05:31:00,65.8,47.7,29.95,WSW,256,2.0,9.0,52,0.00,,---,0.00,VWS V14.01,2013-04-09 09:31:00,
2013-04-09 05:32:00,65.8,47.7,29.95,WSW,248,5.0,6.0,52,0.00,,---,0.00,VWS V14.01,2013-04-09 09:32:00,
2013-04-09 05:33:00,65.8,47.7,29.96,WSW,248,0.0,5.0,52,0.00,,---,0.00,VWS V14.01,2013-04-09 09:33:00,
2013-04-09 05:35:00,65.8,47.7,29.96,West,278,2.0,3.0,52,0.00,,---,0.00,VWS V14.01,2013-04-09 09:35:00,
2013-04-09 05:36:00,65.8,47.7,29.96,West,280,0.0,2.0,52,0.00,,---,0.00,VWS V14.01,2013-04-09 09:36:00,
2013-04-09 05:37:00,65.8,47.7,29.96,West,280,3.0,3.0,52,0.00,,---,0.00,VWS V14.01,2013-04-09 09:37:00,
2013-04-09 05:38:00,65.8,46.1,29.96,SSW,205,0.0,0.0,49,0.00,,---,0.00,VWS V14.01,2013-04-09 09:38:00,
2013-04-09 05:40:00,65.8,47.7,29.96,SSW,205,0.0,3.0,52,0.00,,---,0.00,VWS V14.01,2013-04-09 09:40:00,
2013-04-09 05:41:00,65.8,47.7,29.96,SSW,205,0.0,0.0,52,0.00,,---,0.00,VWS V14.01,2013-04-09 09:41:00,
2013-04-09 05:42:00,65.8,47.7,29.96,SSW,205,0.0,0.0,52,0.00,,---,0.00,VWS V14.01,2013-04-09 09:42:00,
2013-04-09 05:43:00,65.8,47.7,29.96,WSW,255,9.0,13.0,52,0.00,,---,0.00,VWS V14.01,2013-04-09 09:43:00,
2013-04-09 05:45:00,65.8,47.7,29.96,West,280,0.0,0.0,52,0.00,,---,0.00,VWS V14.01,2013-04-09 09:45:00,
2013-04-09 05:46:00,65.8,47.7,29.96,West,280,0.0,0.0,52,0.00,,---,0.00,VWS V14.01,2013-04-09 09:46:00,
2013-04-09 05:47:00,65.8,47.7,29.96,West,280,0.0,0.0,52,0.00,,---,0.00,VWS V14.01,2013-04-09 09:47:00,
2013-04-09 05:48:00,65.8,47.7,29.96,West,280,0.0,0.0,52,0.00,,---,0.00,VWS V14.01,2013-04-09 09:48:00,
2013-04-09 05:50:00,65.8,47.7,29.96,West,280,2.0,2.0,52,0.00,,---,0.00,VWS V14.01,2013-04-09 09:50:00,
2013-04-09 05:51:00,65.8,47.7,29.96,West,280,2.0,3.0,52,0.00,,---,0.00,VWS V14.01,2013-04-09 09:51:00,
2013-04-09 05:52:00,65.8,47.7,29.96,West,280,0.0,2.0,52,0.00,,---,0.00,VWS V14.01,2013-04-09 09:52:00,
2013-04-09 05:53:00,65.8,47.7,29.96,West,280,0.0,0.0,52,0.00,,---,0.00,VWS V14.01,2013-04-09 09:53:00,
2013-04-09 05:55:00,65.8,47.7,29.96,West,280,0.0,4.0,52,0.00,,---,0.00,VWS V14.01,2013-04-09 09:55:00,
2013-04-09 05:56:00,65.8,47.7,29.96,West,280,2.0,2.0,52,0.00,,---,0.00,VWS V14.01,2013-04-09 09:56:00,
2013-04-09 05:57:00,65.8,47.7,29.96,West,280,1.0,3.0,52,0.00,,---,0.00,VWS V14.01,2013-04-09 09:57:00,
2013-04-09 05:58:00,65.6,47.5,29.96,West,280,0.0,0.0,52,0.00,,---,0.00,VWS V14.01,2013-04-09 09:58:00,
2013-04-09 06:01:00,65.6,47.5,29.96,SSW,206,0.0,6.0,52,0.00,,---,0.00,VWS V14.01,2013-04-09 10:01:00,
2013-04-09 06:02:00,65.6,47.5,29.97,SSW,206,3.0,4.0,52,0.00,,---,0.00,VWS V14.01,2013-04-09 10:02:00,
2013-04-09 06:03:00,65.6,47.5,29.97,SSW,206,0.0,0.0,52,0.00,,---,0.00,VWS V14.01,2013-04-09 10:03:00,
2013-04-09 06:07:00,65.5,47.4,29.97,SW,227,0.0,3.0,52,0.00,,---,0.00,VWS V14.01,2013-04-09 10:07:00,
2013-04-09 06:08:00,65.5,47.9,29.97,SW,227,5.0,6.0,53,0.00,,---,0.00,VWS V14.01,2013-04-09 10:08:00,
2013-04-09 06:12:00,65.5,47.9,29.97,SW,222,5.0,5.0,53,0.00,,---,0.00,VWS V14.01,2013-04-09 10:12:00,
2013-04-09 06:13:00,65.3,47.8,29.97,West,261,5.0,9.0,53,0.00,,---,0.00,VWS V14.01,2013-04-09 10:13:00,
2013-04-09 06:17:00,65.3,48.2,29.98,SW,221,0.0,0.0,54,0.00,,---,0.00,VWS V14.01,2013-04-09 10:17:00,
2013-04-09 06:18:00,65.3,48.2,29.98,SW,221,0.0,3.0,54,0.00,,---,0.00,VWS V14.01,2013-04-09 10:18:00,
2013-04-09 06:22:00,65.5,48.4,29.98,WSW,244,4.0,5.0,54,0.00,,---,0.00,VWS V14.01,2013-04-09 10:22:00,
2013-04-09 06:23:00,65.5,48.4,29.98,WSW,244,4.0,4.0,54,0.00,,---,0.00,VWS V14.01,2013-04-09 10:23:00,
2013-04-09 06:27:00,65.5,48.4,29.98,WSW,244,0.0,1.0,54,0.00,,---,0.00,VWS V14.01,2013-04-09 10:27:00,
2013-04-09 06:28:00,65.5,47.9,29.98,WSW,244,0.0,0.0,53,0.00,,---,0.00,VWS V14.01,2013-04-09 10:28:00,
2013-04-09 06:32:00,65.3,48.2,29.99,WSW,244,0.0,1.0,54,0.00,,---,0.00,VWS V14.01,2013-04-09 10:32:00,
2013-04-09 06:33:00,65.3,48.2,29.99,WSW,244,0.0,4.0,54,0.00,,---,0.00,VWS V14.01,2013-04-09 10:33:00,
2013-04-09 06:34:00,65.3,48.2,29.99,WSW,248,4.0,4.0,54,0.00,,---,0.00,VWS V14.01,2013-04-09 10:34:00,
2013-04-09 06:37:00,65.3,48.2,29.99,WSW,249,3.0,5.0,54,0.00,,---,0.00,VWS V14.01,2013-04-09 10:37:00,
2013-04-09 06:38:00,65.3,48.2,29.99,WSW,249,0.0,5.0,54,0.00,,---,0.00,VWS V14.01,2013-04-09 10:38:00,
2013-04-09 06:39:00,65.3,48.2,29.99,WSW,249,0.0,0.0,54,0.00,,---,0.00,VWS V14.01,2013-04-09 10:39:00,
2013-04-09 06:42:00,65.2,48.2,29.99,WSW,249,3.0,3.0,54,0.00,,---,0.00,VWS V14.01,2013-04-09 10:42:00,
2013-04-09 06:43:00,65.2,48.2,29.99,WSW,249,2.0,2.0,54,0.00,,---,0.00,VWS V14.01,2013-04-09 10:43:00,
2013-04-09 06:44:00,65.2,48.2,29.99,WSW,241,2.0,6.0,54,0.00,,---,0.00,VWS V14.01,2013-04-09 10:44:00,
2013-04-09 06:47:00,65.2,48.2,29.99,WSW,241,0.0,0.0,54,0.00,,---,0.00,VWS V14.01,2013-04-09 10:47:00,
2013-04-09 06:48:00,65.2,48.2,29.99,WSW,241,0.0,0.0,54,0.00,,---,0.00,VWS V14.01,2013-04-09 10:48:00,
2013-04-09 06:49:00,65.2,48.2,29.99,WSW,241,2.0,2.0,54,0.00,,---,0.00,VWS V14.01,2013-04-09 10:49:00,
2013-04-09 06:52:00,65.0,48.5,29.99,WSW,242,1.0,3.0,55,0.00,,---,0.00,VWS V14.01,2013-04-09 10:52:00,
2013-04-09 06:53:00,65.0,48.5,29.99,WSW,242,1.0,4.0,55,0.00,,---,0.00,VWS V14.01,2013-04-09 10:53:00,
2013-04-09 06:54:00,65.0,48.5,29.99,WSW,242,2.0,3.0,55,0.00,,---,0.00,VWS V14.01,2013-04-09 10:54:00,
2013-04-09 06:55:00,65.0,48.5,29.99,WSW,242,0.0,0.0,55,0.00,,---,0.00,VWS V14.01,2013-04-09 10:55:00,
2013-04-09 06:57:00,65.0,48.5,29.99,South,188,4.0,10.0,55,0.00,,---,0.00,VWS V14.01,2013-04-09 10:57:00,
2013-04-09 06:58:00,65.0,48.5,29.99,South,191,0.0,2.0,55,0.00,,---,0.00,VWS V14.01,2013-04-09 10:58:00,
2013-04-09 06:59:00,65.0,48.5,29.99,South,191,0.0,0.0,55,0.00,,---,0.00,VWS V14.01,2013-04-09 10:59:00,
2013-04-09 07:00:00,64.8,48.3,29.99,South,191,0.0,3.0,55,0.00,,---,0.00,VWS V14.01,2013-04-09 11:00:00,
2013-04-09 07:02:00,64.8,48.3,30.00,SW,233,5.0,5.0,55,0.00,,---,0.00,VWS V14.01,2013-04-09 11:02:00,
2013-04-09 07:03:00,64.8,48.3,30.00,WNW,290,0.0,5.0,55,0.00,,---,0.00,VWS V14.01,2013-04-09 11:03:00,
2013-04-09 07:04:00,64.8,48.3,30.00,WNW,290,0.0,0.0,55,0.00,,---,0.00,VWS V14.01,2013-04-09 11:04:00,
2013-04-09 07:05:00,64.8,48.3,30.00,WNW,290,1.0,1.0,55,0.00,,---,0.00,VWS V14.01,2013-04-09 11:05:00,
2013-04-09 07:08:00,64.8,48.8,30.00,WNW,290,0.0,0.0,56,0.00,,---,0.00,VWS V14.01,2013-04-09 11:08:00,
2013-04-09 07:09:00,64.8,48.8,30.00,SW,227,3.0,5.0,56,0.00,,---,0.00,VWS V14.01,2013-04-09 11:09:00,
2013-04-09 07:10:00,64.8,48.8,30.00,SW,227,1.0,2.0,56,0.00,,---,0.00,VWS V14.01,2013-04-09 11:10:00,
2013-04-09 07:13:00,64.8,48.8,30.00,SW,228,0.0,1.0,56,0.00,,---,0.00,VWS V14.01,2013-04-09 11:13:00,
2013-04-09 07:14:00,64.8,48.8,30.00,SW,228,1.0,1.0,56,0.00,,---,0.00,VWS V14.01,2013-04-09 11:14:00,
2013-04-09 07:15:00,64.8,48.8,30.00,SW,228,1.0,2.0,56,0.00,,---,0.00,VWS V14.01,2013-04-09 11:15:00,
2013-04-09 07:18:00,64.8,48.8,30.01,West,269,0.0,4.0,56,0.00,,---,0.00,VWS V14.01,2013-04-09 11:18:00,
2013-04-09 07:19:00,65.0,48.9,30.01,WSW,250,2.0,5.0,56,0.00,,---,0.00,VWS V14.01,2013-04-09 11:19:00,
2013-04-09 07:20:00,65.0,48.9,30.01,WNW,284,2.0,6.0,56,0.00,,---,0.00,VWS V14.01,2013-04-09 11:20:00,
2013-04-09 07:23:00,65.0,48.9,30.01,WNW,284,3.0,4.0,56,0.00,,---,0.00,VWS V14.01,2013-04-09 11:23:00,
2013-04-09 07:24:00,65.0,48.9,30.01,West,278,0.0,4.0,56,0.00,,---,0.00,VWS V14.01,2013-04-09 11:24:00,
2013-04-09 07:25:00,65.0,48.9,30.01,West,279,3.0,4.0,56,0.00,,---,0.00,VWS V14.01,2013-04-09 11:25:00,
2013-04-09 07:28:00,65.2,49.1,30.01,SW,229,0.0,1.0,56,0.00,,---,0.00,VWS V14.01,2013-04-09 11:28:00,
2013-04-09 07:30:00,65.2,49.6,30.01,SW,226,0.0,7.0,57,0.00,,---,0.00,VWS V14.01,2013-04-09 11:30:00,
2013-04-09 07:33:00,65.5,49.4,30.01,West,272,6.0,15.0,56,0.00,,---,0.00,VWS V14.01,2013-04-09 11:33:00,
2013-04-09 07:35:00,65.6,49.5,30.01,WSW,248,1.0,5.0,56,0.00,,---,0.00,VWS V14.01,2013-04-09 11:35:00,
2013-04-09 07:38:00,65.8,49.7,30.01,WSW,255,5.0,11.0,56,0.00,,---,0.00,VWS V14.01,2013-04-09 11:38:00,
2013-04-09 07:40:00,66.0,49.4,30.01,WSW,255,1.0,4.0,55,0.00,,---,0.00,VWS V14.01,2013-04-09 11:40:00,
2013-04-09 07:43:00,66.3,49.7,30.01,SW,217,1.0,1.0,55,0.00,,---,0.00,VWS V14.01,2013-04-09 11:43:00,
2013-04-09 07:45:00,66.3,49.7,30.01,WSW,241,2.0,7.0,55,0.00,,---,0.00,VWS V14.01,2013-04-09 11:45:00,
2013-04-09 07:49:00,66.8,50.1,30.01,SW,228,6.0,12.0,55,0.00,,---,0.00,VWS V14.01,2013-04-09 11:49:00,
2013-04-09 07:50:00,66.9,50.2,30.01,WSW,246,1.0,6.0,55,0.00,,---,0.00,VWS V14.01,2013-04-09 11:50:00,
2013-04-09 07:54:00,67.4,50.2,30.01,West,278,4.0,5.0,54,0.00,,---,0.00,VWS V14.01,2013-04-09 11:54:00,
2013-04-09 07:55:00,67.6,50.4,30.01,West,271,2.0,5.0,54,0.00,,---,0.00,VWS V14.01,2013-04-09 11:55:00,
2013-04-09 07:59:00,67.9,50.7,30.01,West,265,0.0,3.0,54,0.00,,---,0.00,VWS V14.01,2013-04-09 11:59:00,
2013-04-09 08:00:00,68.1,50.8,30.01,West,265,0.0,2.0,54,0.00,,---,0.00,VWS V14.01,2013-04-09 12:00:00,
2013-04-09 08:04:00,68.4,50.6,30.01,West,273,1.0,6.0,53,0.00,,---,0.00,VWS V14.01,2013-04-09 12:04:00,
2013-04-09 08:05:00,68.6,50.8,30.01,West,261,3.0,3.0,53,0.00,,---,0.00,VWS V14.01,2013-04-09 12:05:00,
2013-04-09 08:06:00,68.8,51.0,30.01,WNW,300,3.0,7.0,53,0.00,,---,0.00,VWS V14.01,2013-04-09 12:06:00,
2013-04-09 08:10:00,69.1,50.8,30.01,West,267,1.0,1.0,52,0.00,,---,0.00,VWS V14.01,2013-04-09 12:10:00,
2013-04-09 08:11:00,69.3,50.9,30.01,WNW,284,0.0,2.0,52,0.00,,---,0.00,VWS V14.01,2013-04-09 12:11:00,
2013-04-09 08:15:00,69.6,51.2,30.01,West,269,10.0,10.0,52,0.00,,---,0.00,VWS V14.01,2013-04-09 12:15:00,
2013-04-09 08:16:00,69.8,51.4,30.01,WNW,285,5.0,5.0,52,0.00,,---,0.00,VWS V14.01,2013-04-09 12:16:00,
2013-04-09 08:20:00,70.1,50.6,30.01,WSW,254,3.0,10.0,50,0.00,,---,0.00,VWS V14.01,2013-04-09 12:20:00,
2013-04-09 08:21:00,70.3,50.8,30.01,West,267,12.0,12.0,50,0.00,,---,0.00,VWS V14.01,2013-04-09 12:21:00,
2013-04-09 08:25:00,70.6,51.1,30.01,WNW,294,7.0,7.0,50,0.00,,---,0.00,VWS V14.01,2013-04-09 12:25:00,
2013-04-09 08:26:00,70.6,51.1,30.01,WNW,285,1.0,1.0,50,0.00,,---,0.00,VWS V14.01,2013-04-09 12:26:00,
2013-04-09 08:30:00,70.9,51.3,30.01,WSW,251,1.0,6.0,50,0.00,,---,0.00,VWS V14.01,2013-04-09 12:30:00,
2013-04-09 08:31:00,71.1,51.0,30.01,WSW,252,1.0,2.0,49,0.00,,---,0.00,VWS V14.01,2013-04-09 12:31:00,
2013-04-09 08:32:00,71.1,51.0,30.01,WSW,237,6.0,6.0,49,0.00,,---,0.00,VWS V14.01,2013-04-09 12:32:00,
2013-04-09 08:35:00,71.5,51.4,30.01,SW,236,3.0,6.0,49,0.00,,---,0.00,VWS V14.01,2013-04-09 12:35:00,
2013-04-09 08:36:00,71.5,51.4,30.01,SW,234,7.0,8.0,49,0.00,,---,0.00,VWS V14.01,2013-04-09 12:36:00,
2013-04-09 08:37:00,71.5,51.4,30.01,West,259,2.0,3.0,49,0.00,,---,0.00,VWS V14.01,2013-04-09 12:37:00,
2013-04-09 08:40:00,71.8,51.1,30.01,NW,304,1.0,15.0,48,0.00,,---,0.00,VWS V14.01,2013-04-09 12:40:00,
2013-04-09 08:41:00,71.8,51.1,30.01,NW,314,6.0,6.0,48,0.00,,---,0.00,VWS V14.01,2013-04-09 12:41:00,
2013-04-09 08:42:00,71.8,51.1,30.01,WSW,256,4.0,4.0,48,0.00,,---,0.00,VWS V14.01,2013-04-09 12:42:00,
2013-04-09 08:46:00,72.1,51.9,30.01,WSW,242,4.0,4.0,49,0.00,,---,0.00,VWS V14.01,2013-04-09 12:46:00,
2013-04-09 08:47:00,72.1,51.3,30.01,West,263,0.0,2.0,48,0.00,,---,0.00,VWS V14.01,2013-04-09 12:47:00,
2013-04-09 08:51:00,72.5,51.7,30.01,WNW,288,4.0,10.0,48,0.00,,---,0.00,VWS V14.01,2013-04-09 12:51:00,
2013-04-09 08:52:00,72.5,51.2,30.01,West,273,4.0,6.0,47,0.00,,---,0.00,VWS V14.01,2013-04-09 12:52:00,
2013-04-09 08:56:00,72.8,51.4,30.01,West,263,1.0,5.0,47,0.00,,---,0.00,VWS V14.01,2013-04-09 12:56:00,
2013-04-09 08:57:00,72.8,51.4,30.01,WSW,246,5.0,5.0,47,0.00,,---,0.00,VWS V14.01,2013-04-09 12:57:00,
2013-04-09 09:01:00,73.2,51.8,30.01,NW,317,2.0,10.0,47,0.00,,---,0.00,VWS V14.01,2013-04-09 13:01:00,
2013-04-09 09:02:00,73.2,51.8,30.01,NW,316,4.0,5.0,47,0.00,,---,0.00,VWS V14.01,2013-04-09 13:02:00,
2013-04-09 09:06:00,73.3,51.9,30.01,WNW,290,0.0,4.0,47,0.00,,---,0.00,VWS V14.01,2013-04-09 13:06:00,
2013-04-09 09:07:00,73.3,51.9,30.01,WNW,289,4.0,5.0,47,0.00,,---,0.00,VWS V14.01,2013-04-09 13:07:00,
2013-04-09 09:11:00,73.7,52.2,30.01,WNW,289,2.0,4.0,47,0.00,,---,0.00,VWS V14.01,2013-04-09 13:11:00,
2013-04-09 09:12:00,73.7,52.2,30.01,WNW,289,0.0,2.0,47,0.00,,---,0.00,VWS V14.01,2013-04-09 13:12:00,
2013-04-09 09:13:00,73.9,51.8,30.01,WNW,289,1.0,2.0,46,0.00,,---,0.00,VWS V14.01,2013-04-09 13:13:00,
2013-04-09 09:17:00,74.2,51.5,30.01,West,272,2.0,5.0,45,0.00,,---,0.00,VWS V14.01,2013-04-09 13:17:00,
2013-04-09 09:18:00,74.4,51.7,30.01,West,267,0.0,4.0,45,0.00,,---,0.00,VWS V14.01,2013-04-09 13:18:00,
2013-04-09 09:22:00,74.6,51.9,30.01,WNW,300,1.0,3.0,45,0.00,,---,0.00,VWS V14.01,2013-04-09 13:22:00,
2013-04-09 09:23:00,74.7,52.0,30.01,WSW,246,7.0,7.0,45,0.00,,---,0.00,VWS V14.01,2013-04-09 13:23:00,
2013-04-09 09:27:00,74.9,52.2,30.01,West,273,3.0,11.0,45,0.00,,---,0.00,VWS V14.01,2013-04-09 13:27:00,
2013-04-09 09:28:00,74.9,52.2,30.01,West,273,0.0,4.0,45,0.00,,---,0.00,VWS V14.01,2013-04-09 13:28:00,
2013-04-09 09:29:00,74.9,52.2,30.01,West,272,0.0,4.0,45,0.00,,---,0.00,VWS V14.01,2013-04-09 13:29:00,
2013-04-09 09:33:00,75.1,52.3,30.01,West,265,3.0,5.0,45,0.00,,---,0.00,VWS V14.01,2013-04-09 13:33:00,
2013-04-09 09:34:00,75.1,52.3,30.01,West,263,0.0,0.0,45,0.00,,---,0.00,VWS V14.01,2013-04-09 13:34:00,
2013-04-09 09:38:00,75.3,51.9,30.01,West,277,0.0,7.0,44,0.00,,---,0.00,VWS V14.01,2013-04-09 13:38:00,
2013-04-09 09:39:00,75.4,52.6,30.01,NW,305,5.0,7.0,45,0.00,,---,0.00,VWS V14.01,2013-04-09 13:39:00,
2013-04-09 09:43:00,75.4,52.0,30.01,West,275,1.0,1.0,44,0.00,,---,0.00,VWS V14.01,2013-04-09 13:43:00,
2013-04-09 09:44:00,75.4,52.0,30.01,West,275,0.0,0.0,44,0.00,,---,0.00,VWS V14.01,2013-04-09 13:44:00,
2013-04-09 09:48:00,75.4,52.6,30.01,NNW,327,2.0,6.0,45,0.00,,---,0.00,VWS V14.01,2013-04-09 13:48:00,
2013-04-09 09:49:00,75.4,52.6,30.01,WNW,295,3.0,3.0,45,0.00,,---,0.00,VWS V14.01,2013-04-09 13:49:00,
2013-04-09 09:50:00,75.6,52.8,30.01,WNW,299,7.0,9.0,45,0.00,,---,0.00,VWS V14.01,2013-04-09 13:50:00,
2013-04-09 09:53:00,75.6,52.8,30.01,WSW,256,0.0,2.0,45,0.00,,---,0.00,VWS V14.01,2013-04-09 13:53:00,
2013-04-09 09:54:00,75.4,50.7,30.01,SW,236,2.0,11.0,42,0.00,,---,0.00,VWS V14.01,2013-04-09 13:54:00,
2013-04-09 09:55:00,75.4,52.0,30.01,West,277,3.0,12.0,44,0.00,,---,0.00,VWS V14.01,2013-04-09 13:55:00,
2013-04-09 09:58:00,75.4,52.0,30.01,WNW,290,2.0,3.0,44,0.00,,---,0.00,VWS V14.01,2013-04-09 13:58:00,
2013-04-09 09:59:00,75.4,52.6,30.01,NW,323,0.0,7.0,45,0.00,,---,0.00,VWS V14.01,2013-04-09 13:59:00,
2013-04-09 10:00:00,75.4,53.2,30.01,WNW,290,5.0,9.0,46,0.00,,---,0.00,VWS V14.01,2013-04-09 14:00:00,
2013-04-09 10:03:00,75.6,53.4,30.00,West,263,2.0,4.0,46,0.00,,---,0.00,VWS V14.01,2013-04-09 14:03:00,
2013-04-09 10:04:00,75.6,52.8,30.00,North,360,3.0,10.0,45,0.00,,---,0.00,VWS V14.01,2013-04-09 14:04:00,
2013-04-09 10:05:00,75.6,52.8,30.00,NNW,327,6.0,10.0,45,0.00,,---,0.00,VWS V14.01,2013-04-09 14:05:00,
2013-04-09 10:08:00,75.6,53.4,30.00,NW,325,9.0,11.0,46,0.00,,---,0.00,VWS V14.01,2013-04-09 14:08:00,
2013-04-09 10:09:00,75.6,52.8,30.00,SW,215,1.0,2.0,45,0.00,,---,0.00,VWS V14.01,2013-04-09 14:09:00,
2013-04-09 10:10:00,75.6,52.8,30.00,South,171,3.0,3.0,45,0.00,,---,0.00,VWS V14.01,2013-04-09 14:10:00,
2013-04-09 10:13:00,75.6,52.8,30.00,West,270,7.0,7.0,45,0.00,,---,0.00,VWS V14.01,2013-04-09 14:13:00,
2013-04-09 10:14:00,75.6,52.8,30.00,WNW,302,7.0,12.0,45,0.00,,---,0.00,VWS V14.01,2013-04-09 14:14:00,
2013-04-09 10:15:00,75.6,52.8,30.00,West,267,5.0,12.0,45,0.00,,---,0.00,VWS V14.01,2013-04-09 14:15:00,
2013-04-09 10:18:00,75.8,53.0,30.01,NW,305,6.0,6.0,45,0.00,,---,0.00,VWS V14.01,2013-04-09 14:18:00,
2013-04-09 10:20:00,75.8,53.0,30.01,WNW,290,3.0,5.0,45,0.00,,---,0.00,VWS V14.01,2013-04-09 14:20:00,
2013-04-09 10:23:00,75.8,53.6,30.01,NNE,13,3.0,9.0,46,0.00,,---,0.00,VWS V14.01,2013-04-09 14:23:00,
2013-04-09 10:25:00,75.8,53.0,30.01,WNW,300,10.0,10.0,45,0.00,,---,0.00,VWS V14.01,2013-04-09 14:25:00,
2013-04-09 10:28:00,76.0,52.5,30.01,NNW,327,4.0,12.0,44,0.00,,---,0.00,VWS V14.01,2013-04-09 14:28:00,
2013-04-09 10:30:00,76.0,52.5,30.01,NW,309,6.0,9.0,44,0.00,,---,0.00,VWS V14.01,2013-04-09 14:30:00,
2013-04-09 10:33:00,75.8,53.0,30.02,NE,35,1.0,4.0,45,0.00,,---,0.00,VWS V14.01,2013-04-09 14:33:00,
2013-04-09 10:35:00,75.8,52.4,30.02,West,269,1.0,1.0,44,0.00,,---,0.00,VWS V14.01,2013-04-09 14:35:00,
2013-04-09 10:39:00,75.8,53.0,30.02,West,280,7.0,8.0,45,0.00,,---,0.00,VWS V14.01,2013-04-09 14:39:00,
2013-04-09 10:40:00,75.8,53.6,30.02,WSW,246,7.0,7.0,46,0.00,,---,0.00,VWS V14.01,2013-04-09 14:40:00,
2013-04-09 10:44:00,75.8,52.4,30.02,NNE,15,1.0,3.0,44,0.00,,---,0.00,VWS V14.01,2013-04-09 14:44:00,
2013-04-09 10:45:00,75.8,53.0,30.02,NNW,344,9.0,9.0,45,0.00,,---,0.00,VWS V14.01,2013-04-09 14:45:00,
2013-04-09 10:49:00,75.6,52.8,30.02,North,355,9.0,9.0,45,0.00,,---,0.00,VWS V14.01,2013-04-09 14:49:00,
2013-04-09 10:50:00,75.4,52.6,30.02,WNW,290,0.0,4.0,45,0.00,,---,0.00,VWS V14.01,2013-04-09 14:50:00,
2013-04-09 10:54:00,75.4,52.6,30.02,WNW,294,1.0,5.0,45,0.00,,---,0.00,VWS V14.01,2013-04-09 14:54:00,
2013-04-09 10:55:00,75.4,53.2,30.02,WNW,294,0.0,0.0,46,0.00,,---,0.00,VWS V14.01,2013-04-09 14:55:00,
2013-04-09 10:59:00,75.6,53.4,30.02,North,355,0.0,2.0,46,0.00,,---,0.00,VWS V14.01,2013-04-09 14:59:00,
2013-04-09 11:00:00,75.6,53.4,30.02,WNW,288,0.0,2.0,46,0.00,,---,0.00,VWS V14.01,2013-04-09 15:00:00,
2013-04-09 11:05:00,75.6,52.8,30.02,NW,325,8.0,11.0,45,0.00,,---,0.00,VWS V14.01,2013-04-09 15:05:00,
2013-04-09 11:06:00,75.6,52.8,30.02,NNW,333,0.0,11.0,45,0.00,,---,0.00,VWS V14.01,2013-04-09 15:06:00,
2013-04-09 11:10:00,75.6,52.8,30.02,NW,323,3.0,4.0,45,0.00,,---,0.00,VWS V14.01,2013-04-09 15:10:00,
2013-04-09 11:11:00,75.6,52.8,30.02,NNW,347,4.0,7.0,45,0.00,,---,0.00,VWS V14.01,2013-04-09 15:11:00,
2013-04-09 11:15:00,75.6,54.0,30.02,WNW,302,2.0,3.0,47,0.00,,---,0.00,VWS V14.01,2013-04-09 15:15:00,
2013-04-09 11:16:00,75.6,55.1,30.02,NNW,344,6.0,6.0,49,0.00,,---,0.00,VWS V14.01,2013-04-09 15:16:00,
2013-04-09 11:20:00,76.1,53.2,30.01,NW,308,1.0,2.0,45,0.00,,---,0.00,VWS V14.01,2013-04-09 15:20:00,
2013-04-09 11:21:00,76.1,53.2,30.01,NNW,331,4.0,4.0,45,0.00,,---,0.00,VWS V14.01,2013-04-09 15:21:00,
2013-04-09 11:25:00,76.8,53.3,30.01,NNW,347,4.0,4.0,44,0.00,,---,0.00,VWS V14.01,2013-04-09 15:25:00,
2013-04-09 11:26:00,76.8,53.3,30.01,NW,306,2.0,4.0,44,0.00,,---,0.00,VWS V14.01,2013-04-09 15:26:00,
2013-04-09 11:30:00,77.2,53.6,30.01,West,271,2.0,6.0,44,0.00,,---,0.00,VWS V14.01,2013-04-09 15:30:00,
2013-04-09 11:31:00,77.2,53.6,30.01,WNW,292,9.0,10.0,44,0.00,,---,0.00,VWS V14.01,2013-04-09 15:31:00,
2013-04-09 11:35:00,77.9,53.0,30.01,North,360,3.0,12.0,42,0.00,,---,0.00,VWS V14.01,2013-04-09 15:35:00,
2013-04-09 11:36:00,77.9,53.0,30.01,North,360,3.0,12.0,42,0.00,,---,0.00,VWS V14.01,2013-04-09 15:36:00,
2013-04-09 11:40:00,78.1,52.5,30.01,NNW,346,1.0,6.0,41,0.00,,---,0.00,VWS V14.01,2013-04-09 15:40:00,
2013-04-09 11:41:00,78.1,52.5,30.01,North,349,2.0,6.0,41,0.00,,---,0.00,VWS V14.01,2013-04-09 15:41:00,
2013-04-09 11:45:00,78.5,52.9,30.01,West,279,3.0,4.0,41,0.00,,---,0.00,VWS V14.01,2013-04-09 15:45:00,
2013-04-09 11:46:00,78.5,52.9,30.01,West,279,3.0,4.0,41,0.00,,---,0.00,VWS V14.01,2013-04-09 15:46:00,
2013-04-09 11:47:00,78.5,53.5,30.01,West,275,4.0,5.0,42,0.00,,---,0.00,VWS V14.01,2013-04-09 15:47:00,
2013-04-09 11:51:00,78.8,54.4,30.00,West,277,3.0,14.0,43,0.00,,---,0.00,VWS V14.01,2013-04-09 15:51:00,
2013-04-09 11:53:00,79.2,53.5,30.00,NW,315,2.0,9.0,41,0.00,,---,0.00,VWS V14.01,2013-04-09 15:53:00,
2013-04-09 11:56:00,79.4,53.0,30.00,West,265,0.0,2.0,40,0.00,,---,0.00,VWS V14.01,2013-04-09 15:56:00,
2013-04-09 11:57:00,79.4,53.7,30.00,NNW,346,4.0,4.0,41,0.00,,---,0.00,VWS V14.01,2013-04-09 15:57:00,
2013-04-09 11:58:00,79.6,53.8,30.00,NNW,336,2.0,3.0,41,0.00,,---,0.00,VWS V14.01,2013-04-09 15:58:00,
2013-04-09 12:01:00,79.8,54.0,30.00,NNW,336,1.0,3.0,41,0.00,,---,0.00,VWS V14.01,2013-04-09 16:01:00,
2013-04-09 12:02:00,79.8,54.0,30.00,NNW,329,3.0,6.0,41,0.00,,---,0.00,VWS V14.01,2013-04-09 16:02:00,
2013-04-09 12:03:00,79.8,54.0,30.00,WSW,248,5.0,7.0,41,0.00,,---,0.00,VWS V14.01,2013-04-09 16:03:00,
2013-04-09 12:06:00,80.1,53.6,30.00,West,269,5.0,5.0,40,0.00,,---,0.00,VWS V14.01,2013-04-09 16:06:00,
2013-04-09 12:07:00,80.1,53.6,30.00,WSW,250,1.0,6.0,40,0.00,,---,0.00,VWS V14.01,2013-04-09 16:07:00,
2013-04-09 12:08:00,80.3,52.4,30.00,WSW,250,2.0,4.0,38,0.00,,---,0.00,VWS V14.01,2013-04-09 16:08:00,
2013-04-09 12:11:00,80.7,53.5,30.00,WNW,295,11.0,13.0,39,0.00,,---,0.00,VWS V14.01,2013-04-09 16:11:00,
2013-04-09 12:12:00,80.9,52.9,30.00,SW,223,5.0,6.0,38,0.00,,---,0.00,VWS V14.01,2013-04-09 16:12:00,
2013-04-09 12:13:00,81.1,54.5,30.00,West,276,4.0,5.0,40,0.00,,---,0.00,VWS V14.01,2013-04-09 16:13:00,
2013-04-09 12:16:00,81.2,53.2,30.00,NW,318,5.0,10.0,38,0.00,,---,0.00,VWS V14.01,2013-04-09 16:16:00,
2013-04-09 12:17:00,81.2,53.2,30.00,NW,313,0.0,4.0,38,0.00,,---,0.00,VWS V14.01,2013-04-09 16:17:00,
2013-04-09 12:19:00,81.2,53.2,30.00,NNW,340,0.0,2.0,38,0.00,,---,0.00,VWS V14.01,2013-04-09 16:19:00,
2013-04-09 12:21:00,81.1,51.7,30.00,West,279,5.0,12.0,36,0.00,,---,0.00,VWS V14.01,2013-04-09 16:21:00,
2013-04-09 12:22:00,81.1,51.7,30.00,West,259,9.0,9.0,36,0.00,,---,0.00,VWS V14.01,2013-04-09 16:22:00,
2013-04-09 12:24:00,81.1,52.4,30.00,WNW,284,7.0,7.0,37,0.00,,---,0.00,VWS V14.01,2013-04-09 16:24:00,
2013-04-09 12:27:00,81.1,51.7,30.00,WNW,296,8.0,10.0,36,0.00,,---,0.00,VWS V14.01,2013-04-09 16:27:00,
2013-04-09 12:29:00,80.9,52.2,30.00,West,262,4.0,11.0,37,0.00,,---,0.00,VWS V14.01,2013-04-09 16:29:00,
2013-04-09 12:32:00,81.1,51.7,29.99,WNW,284,7.0,13.0,36,0.00,,---,0.00,VWS V14.01,2013-04-09 16:32:00,
2013-04-09 12:34:00,81.2,53.2,29.99,NW,304,1.0,6.0,38,0.00,,---,0.00,VWS V14.01,2013-04-09 16:34:00,
2013-04-09 12:37:00,81.6,50.5,29.99,West,273,6.0,11.0,34,0.00,,---,0.00,VWS V14.01,2013-04-09 16:37:00,
2013-04-09 12:39:00,81.6,50.5,29.99,WSW,257,4.0,7.0,34,0.00,,---,0.00,VWS V14.01,2013-04-09 16:39:00,
2013-04-09 12:42:00,81.6,50.5,29.99,NNW,346,0.0,4.0,34,0.00,,---,0.00,VWS V14.01,2013-04-09 16:42:00,
2013-04-09 12:43:00,81.6,51.3,29.99,ESE,123,1.0,3.0,35,0.00,,---,0.00,VWS V14.01,2013-04-09 16:43:00,
2013-04-09 12:45:00,81.8,51.5,29.99,WSW,241,4.0,6.0,35,0.00,,---,0.00,VWS V14.01,2013-04-09 16:45:00,
2013-04-09 12:47:00,81.8,51.5,29.98,West,264,10.0,12.0,35,0.00,,---,0.00,VWS V14.01,2013-04-09 16:47:00,
2013-04-09 12:48:00,81.8,51.5,29.98,West,264,10.0,12.0,35,0.00,,---,0.00,VWS V14.01,2013-04-09 16:48:00,
2013-04-09 12:50:00,82.0,50.9,29.98,WSW,251,3.0,3.0,34,0.00,,---,0.00,VWS V14.01,2013-04-09 16:50:00,
2013-04-09 12:52:00,82.2,51.8,29.98,WNW,290,10.0,10.0,35,0.00,,---,0.00,VWS V14.01,2013-04-09 16:52:00,
2013-04-09 12:53:00,82.2,51.8,29.98,WNW,290,10.0,10.0,35,0.00,,---,0.00,VWS V14.01,2013-04-09 16:53:00,
2013-04-09 12:55:00,82.4,50.4,29.98,WNW,289,0.0,0.0,33,0.00,,---,0.00,VWS V14.01,2013-04-09 16:55:00,
2013-04-09 12:57:00,82.4,52.0,29.98,NNW,343,3.0,5.0,35,0.00,,---,0.00,VWS V14.01,2013-04-09 16:57:00,
2013-04-09 12:58:00,82.4,52.0,29.98,NNW,343,3.0,3.0,35,0.00,,---,0.00,VWS V14.01,2013-04-09 16:58:00,
2013-04-09 13:00:00,82.4,51.2,29.98,NW,305,5.0,5.0,34,0.00,,---,0.00,VWS V14.01,2013-04-09 17:00:00,
2013-04-09 13:03:00,82.6,51.4,29.98,West,259,9.0,9.0,34,0.00,,---,0.00,VWS V14.01,2013-04-09 17:03:00,
2013-04-09 13:05:00,82.6,50.6,29.98,WSW,250,3.0,7.0,33,0.00,,---,0.00,VWS V14.01,2013-04-09 17:05:00,
2013-04-09 13:08:00,82.8,50.0,29.98,WSW,246,4.0,4.0,32,0.00,,---,0.00,VWS V14.01,2013-04-09 17:08:00,
2013-04-09 13:10:00,83.0,51.0,29.98,SW,219,1.0,4.0,33,0.00,,---,0.00,VWS V14.01,2013-04-09 17:10:00,
2013-04-09 13:13:00,83.0,49.3,29.98,NNE,14,0.0,2.0,31,0.00,,---,0.00,VWS V14.01,2013-04-09 17:13:00,
2013-04-09 13:15:00,82.8,50.0,29.98,North,360,2.0,4.0,32,0.00,,---,0.00,VWS V14.01,2013-04-09 17:15:00,
2013-04-09 13:18:00,83.0,50.1,29.97,WNW,285,4.0,7.0,32,0.00,,---,0.00,VWS V14.01,2013-04-09 17:18:00,
2013-04-09 13:19:00,83.0,50.1,29.97,West,279,6.0,12.0,32,0.00,,---,0.00,VWS V14.01,2013-04-09 17:19:00,
2013-04-09 13:20:00,83.0,49.3,29.97,West,277,2.0,6.0,31,0.00,,---,0.00,VWS V14.01,2013-04-09 17:20:00,
2013-04-09 13:23:00,83.2,51.1,29.97,WSW,244,5.0,6.0,33,0.00,,---,0.00,VWS V14.01,2013-04-09 17:23:00,
2013-04-09 13:24:00,83.4,49.6,29.97,West,267,5.0,9.0,31,0.00,,---,0.00,VWS V14.01,2013-04-09 17:24:00,
2013-04-09 13:25:00,83.4,50.5,29.97,West,272,0.0,5.0,32,0.00,,---,0.00,VWS V14.01,2013-04-09 17:25:00,
2013-04-09 13:28:00,83.8,50.8,29.97,NNW,342,4.0,5.0,32,0.00,,---,0.00,VWS V14.01,2013-04-09 17:28:00,
2013-04-09 13:30:00,83.8,50.8,29.97,NNE,24,0.0,1.0,32,0.00,,---,0.00,VWS V14.01,2013-04-09 17:30:00,
2013-04-09 13:33:00,84.1,50.2,29.96,West,264,3.0,3.0,31,0.00,,---,0.00,VWS V14.01,2013-04-09 17:33:00,
2013-04-09 13:35:00,84.3,49.5,29.96,NNW,344,6.0,10.0,30,0.00,,---,0.00,VWS V14.01,2013-04-09 17:35:00,
2013-04-09 13:38:00,84.1,50.2,29.96,NE,53,3.0,4.0,31,0.00,,---,0.00,VWS V14.01,2013-04-09 17:38:00,
2013-04-09 13:40:00,84.1,51.1,29.96,SSE,163,1.0,2.0,32,0.00,,---,0.00,VWS V14.01,2013-04-09 17:40:00,
2013-04-09 13:43:00,84.1,50.2,29.96,WSW,256,2.0,2.0,31,0.00,,---,0.00,VWS V14.01,2013-04-09 17:43:00,
2013-04-09 13:45:00,84.1,50.2,29.96,WSW,255,3.0,7.0,31,0.00,,---,0.00,VWS V14.01,2013-04-09 17:45:00,
2013-04-09 13:48:00,84.3,48.6,29.95,North,9,0.0,0.0,29,0.00,,---,0.00,VWS V14.01,2013-04-09 17:48:00,
2013-04-09 13:50:00,84.5,50.6,29.95,WNW,294,5.0,7.0,31,0.00,,---,0.00,VWS V14.01,2013-04-09 17:50:00,
2013-04-09 13:53:00,84.7,49.9,29.95,West,262,3.0,7.0,30,0.00,,---,0.00,VWS V14.01,2013-04-09 17:53:00,
2013-04-09 13:55:00,84.9,50.9,29.95,West,260,4.0,5.0,31,0.00,,---,0.00,VWS V14.01,2013-04-09 17:55:00,
2013-04-09 13:58:00,85.3,49.5,29.95,West,278,4.0,7.0,29,0.00,,---,0.00,VWS V14.01,2013-04-09 17:58:00,
2013-04-09 13:59:00,85.3,49.5,29.95,WSW,246,14.0,14.0,29,0.00,,---,0.00,VWS V14.01,2013-04-09 17:59:00,
2013-04-09 14:00:00,85.3,48.5,29.95,West,274,9.0,9.0,28,0.00,,---,0.00,VWS V14.01,2013-04-09 18:00:00,
2013-04-09 14:04:00,85.7,48.9,29.94,SSW,198,3.0,10.0,28,0.00,,---,0.00,VWS V14.01,2013-04-09 18:04:00,
2013-04-09 14:05:00,85.7,48.9,29.94,SSW,199,0.0,4.0,28,0.00,,---,0.00,VWS V14.01,2013-04-09 18:05:00,
2013-04-09 14:06:00,85.9,49.0,29.94,WSW,249,10.0,12.0,28,0.00,,---,0.00,VWS V14.01,2013-04-09 18:06:00,
2013-04-09 14:09:00,85.9,49.0,29.94,West,261,4.0,6.0,28,0.00,,---,0.00,VWS V14.01,2013-04-09 18:09:00,
2013-04-09 14:10:00,85.9,49.0,29.94,WSW,242,0.0,3.0,28,0.00,,---,0.00,VWS V14.01,2013-04-09 18:10:00,
2013-04-09 14:12:00,85.9,48.1,29.94,NNW,332,0.0,0.0,27,0.00,,---,0.00,VWS V14.01,2013-04-09 18:12:00,
2013-04-09 14:14:00,85.9,49.0,29.94,West,265,4.0,4.0,28,0.00,,---,0.00,VWS V14.01,2013-04-09 18:14:00,
2013-04-09 14:15:00,85.9,50.0,29.94,West,269,5.0,10.0,29,0.00,,---,0.00,VWS V14.01,2013-04-09 18:15:00,
2013-04-09 14:17:00,85.9,49.0,29.93,West,264,5.0,10.0,28,0.00,,---,0.00,VWS V14.01,2013-04-09 18:17:00,
2013-04-09 14:19:00,85.9,49.0,29.93,WSW,237,6.0,12.0,28,0.00,,---,0.00,VWS V14.01,2013-04-09 18:19:00,
2013-04-09 14:20:00,85.9,49.0,29.93,SW,236,9.0,9.0,28,0.00,,---,0.00,VWS V14.01,2013-04-09 18:20:00,
2013-04-09 14:22:00,85.9,49.0,29.93,SW,223,10.0,13.0,28,0.00,,---,0.00,VWS V14.01,2013-04-09 18:22:00,
2013-04-09 14:24:00,85.9,49.0,29.93,SSW,205,1.0,6.0,28,0.00,,---,0.00,VWS V14.01,2013-04-09 18:24:00,
2013-04-09 14:25:00,85.9,49.0,29.93,SSW,211,0.0,2.0,28,0.00,,---,0.00,VWS V14.01,2013-04-09 18:25:00,
2013-04-09 14:26:00,85.9,49.0,29.93,SSW,211,0.0,2.0,28,0.00,,---,0.00,VWS V14.01,2013-04-09 18:26:00,
2013-04-09 14:27:00,85.9,49.0,29.93,SW,217,5.0,6.0,28,0.00,,---,0.00,VWS V14.01,2013-04-09 18:27:00,
2013-04-09 14:29:00,85.9,49.0,29.93,WSW,249,12.0,12.0,28,0.00,,---,0.00,VWS V14.01,2013-04-09 18:29:00,
2013-04-09 14:30:00,85.9,49.0,29.93,WSW,258,4.0,10.0,28,0.00,,---,0.00,VWS V14.01,2013-04-09 18:30:00,
2013-04-09 14:31:00,86.1,49.2,29.93,West,265,4.0,7.0,28,0.00,,---,0.00,VWS V14.01,2013-04-09 18:31:00,
2013-04-09 14:32:00,86.3,49.4,29.92,SW,232,3.0,7.0,28,0.00,,---,0.00,VWS V14.01,2013-04-09 18:32:00,
2013-04-09 14:35:00,86.5,48.6,29.92,SW,215,6.0,9.0,27,0.00,,---,0.00,VWS V14.01,2013-04-09 18:35:00,
2013-04-09 14:36:00,86.7,47.8,29.92,SW,232,0.0,6.0,26,0.00,,---,0.00,VWS V14.01,2013-04-09 18:36:00,
2013-04-09 14:37:00,86.7,49.7,29.92,SSW,205,13.0,13.0,28,0.00,,---,0.00,VWS V14.01,2013-04-09 18:37:00,
2013-04-09 14:40:00,87.0,49.0,29.92,SW,222,6.0,18.0,27,0.00,,---,0.00,VWS V14.01,2013-04-09 18:40:00,
2013-04-09 14:41:00,87.0,48.0,29.92,WSW,248,2.0,16.0,26,0.00,,---,0.00,VWS V14.01,2013-04-09 18:41:00,
2013-04-09 14:42:00,87.2,48.2,29.92,SSW,200,19.0,19.0,26,0.00,,---,0.00,VWS V14.01,2013-04-09 18:42:00,
2013-04-09 14:45:00,87.2,49.2,29.92,SW,222,6.0,10.0,27,0.00,,---,0.00,VWS V14.01,2013-04-09 18:45:00,
2013-04-09 14:46:00,87.4,49.3,29.92,SSW,212,4.0,5.0,27,0.00,,---,0.00,VWS V14.01,2013-04-09 18:46:00,
2013-04-09 14:47:00,87.4,49.3,29.92,SW,230,7.0,7.0,27,0.00,,---,0.00,VWS V14.01,2013-04-09 18:47:00,
2013-04-09 14:50:00,87.4,49.3,29.92,SW,217,6.0,6.0,27,0.00,,---,0.00,VWS V14.01,2013-04-09 18:50:00,
2013-04-09 14:51:00,87.4,48.3,29.92,SW,219,5.0,8.0,26,0.00,,---,0.00,VWS V14.01,2013-04-09 18:51:00,
2013-04-09 14:52:00,87.4,48.3,29.92,SW,219,3.0,4.0,26,0.00,,---,0.00,VWS V14.01,2013-04-09 18:52:00,
2013-04-09 14:55:00,87.4,50.3,29.92,WNW,295,2.0,4.0,28,0.00,,---,0.00,VWS V14.01,2013-04-09 18:55:00,
2013-04-09 14:56:00,87.4,48.3,29.92,SW,222,5.0,6.0,26,0.00,,---,0.00,VWS V14.01,2013-04-09 18:56:00,
2013-04-09 14:57:00,87.4,49.3,29.92,WSW,254,6.0,9.0,27,0.00,,---,0.00,VWS V14.01,2013-04-09 18:57:00,
2013-04-09 15:00:00,87.4,49.3,29.92,SSW,207,12.0,16.0,27,0.00,,---,0.00,VWS V14.01,2013-04-09 19:00:00,
2013-04-09 15:01:00,87.4,48.3,29.92,SSW,211,9.0,9.0,26,0.00,,---,0.00,VWS V14.01,2013-04-09 19:01:00,
2013-04-09 15:03:00,87.4,49.3,29.91,WSW,240,4.0,8.0,27,0.00,,---,0.00,VWS V14.01,2013-04-09 19:03:00,
2013-04-09 15:05:00,87.4,48.3,29.91,West,259,4.0,8.0,26,0.00,,---,0.00,VWS V14.01,2013-04-09 19:05:00,
2013-04-09 15:08:00,87.4,48.3,29.91,South,188,4.0,10.0,26,0.00,,---,0.00,VWS V14.01,2013-04-09 19:08:00,
2013-04-09 15:10:00,87.4,48.3,29.91,SSW,207,3.0,5.0,26,0.00,,---,0.00,VWS V14.01,2013-04-09 19:10:00,
2013-04-09 15:13:00,87.4,50.3,29.91,South,190,4.0,4.0,28,0.00,,---,0.00,VWS V14.01,2013-04-09 19:13:00,
2013-04-09 15:15:00,87.2,50.2,29.91,South,173,3.0,3.0,28,0.00,,---,0.00,VWS V14.01,2013-04-09 19:15:00,
2013-04-09 15:18:00,87.2,50.2,29.90,South,182,2.0,9.0,28,0.00,,---,0.00,VWS V14.01,2013-04-09 19:18:00,
2013-04-09 15:20:00,87.0,49.0,29.90,SSE,165,5.0,11.0,27,0.00,,---,0.00,VWS V14.01,2013-04-09 19:20:00,
2013-04-09 15:23:00,86.7,49.7,29.90,ENE,74,6.0,7.0,28,0.00,,---,0.00,VWS V14.01,2013-04-09 19:23:00,
2013-04-09 15:25:00,86.1,49.2,29.90,East,95,2.0,6.0,28,0.00,,---,0.00,VWS V14.01,2013-04-09 19:25:00,
2013-04-09 15:28:00,85.9,50.0,29.90,SSW,205,4.0,7.0,29,0.00,,---,0.00,VWS V14.01,2013-04-09 19:28:00,
2013-04-09 15:30:00,85.9,49.0,29.90,SSW,201,7.0,13.0,28,0.00,,---,0.00,VWS V14.01,2013-04-09 19:30:00,
2013-04-09 15:33:00,85.9,49.0,29.90,South,182,2.0,2.0,28,0.00,,---,0.00,VWS V14.01,2013-04-09 19:33:00,
2013-04-09 15:35:00,85.9,49.0,29.90,East,98,4.0,17.0,28,0.00,,---,0.00,VWS V14.01,2013-04-09 19:35:00,
2013-04-09 15:38:00,85.7,51.6,29.90,SSW,207,7.0,7.0,31,0.00,,---,0.00,VWS V14.01,2013-04-09 19:38:00,
2013-04-09 15:41:00,85.7,48.9,29.90,South,186,6.0,6.0,28,0.00,,---,0.00,VWS V14.01,2013-04-09 19:41:00,
2013-04-09 15:43:00,85.7,48.9,29.90,SSW,213,16.0,16.0,28,0.00,,---,0.00,VWS V14.01,2013-04-09 19:43:00,
2013-04-09 15:44:00,85.9,49.0,29.90,South,190,16.0,17.0,28,0.00,,---,0.00,VWS V14.01,2013-04-09 19:44:00,
2013-04-09 15:46:00,85.9,48.1,29.90,SSW,202,6.0,7.0,27,0.00,,---,0.00,VWS V14.01,2013-04-09 19:46:00,
2013-04-09 15:49:00,86.1,49.2,29.89,SW,221,15.0,15.0,28,0.00,,---,0.00,VWS V14.01,2013-04-09 19:49:00,
2013-04-09 15:50:00,86.1,48.2,29.89,SW,219,13.0,16.0,27,0.00,,---,0.00,VWS V14.01,2013-04-09 19:50:00,
2013-04-09 15:51:00,86.1,49.2,29.89,SW,232,5.0,6.0,28,0.00,,---,0.00,VWS V14.01,2013-04-09 19:51:00,
2013-04-09 15:54:00,86.3,49.4,29.89,SSW,198,11.0,11.0,28,0.00,,---,0.00,VWS V14.01,2013-04-09 19:54:00,
2013-04-09 15:55:00,86.3,49.4,29.89,South,188,4.0,9.0,28,0.00,,---,0.00,VWS V14.01,2013-04-09 19:55:00,
2013-04-09 15:56:00,86.3,49.4,29.89,SW,218,11.0,18.0,28,0.00,,---,0.00,VWS V14.01,2013-04-09 19:56:00,
2013-04-09 15:59:00,86.3,49.4,29.89,South,190,8.0,10.0,28,0.00,,---,0.00,VWS V14.01,2013-04-09 19:59:00,
2013-04-09 16:00:00,86.3,49.4,29.89,South,182,5.0,7.0,28,0.00,,---,0.00,VWS V14.01,2013-04-09 20:00:00,
2013-04-09 16:02:00,86.3,49.4,29.89,South,180,8.0,8.0,28,0.00,,---,0.00,VWS V14.01,2013-04-09 20:02:00,
2013-04-09 16:04:00,86.3,49.4,29.89,South,185,14.0,15.0,28,0.00,,---,0.00,VWS V14.01,2013-04-09 20:04:00,
2013-04-09 16:05:00,86.1,49.2,29.89,SSE,163,7.0,7.0,28,0.00,,---,0.00,VWS V14.01,2013-04-09 20:05:00,
2013-04-09 16:07:00,86.1,48.2,29.89,SSE,162,6.0,9.0,27,0.00,,---,0.00,VWS V14.01,2013-04-09 20:07:00,
2013-04-09 16:10:00,85.7,49.8,29.89,South,179,9.0,14.0,29,0.00,,---,0.00,VWS V14.01,2013-04-09 20:10:00,
2013-04-09 16:12:00,85.7,49.8,29.89,SSE,150,3.0,7.0,29,0.00,,---,0.00,VWS V14.01,2013-04-09 20:12:00,
2013-04-09 16:15:00,85.5,50.6,29.89,SSE,163,5.0,16.0,30,0.00,,---,0.00,VWS V14.01,2013-04-09 20:15:00,
2013-04-09 16:17:00,85.5,49.7,29.88,South,190,9.0,9.0,29,0.00,,---,0.00,VWS V14.01,2013-04-09 20:17:00,
2013-04-09 16:20:00,85.3,49.5,29.88,South,188,3.0,14.0,29,0.00,,---,0.00,VWS V14.01,2013-04-09 20:20:00,
2013-04-09 16:22:00,85.3,50.4,29.88,SSW,202,10.0,12.0,30,0.00,,---,0.00,VWS V14.01,2013-04-09 20:22:00,
2013-04-09 16:25:00,85.3,49.5,29.88,South,187,0.0,4.0,29,0.00,,---,0.00,VWS V14.01,2013-04-09 20:25:00,
2013-04-09 16:27:00,85.3,49.5,29.88,SSW,209,7.0,12.0,29,0.00,,---,0.00,VWS V14.01,2013-04-09 20:27:00,
2013-04-09 16:30:00,85.3,50.4,29.88,South,189,4.0,5.0,30,0.00,,---,0.00,VWS V14.01,2013-04-09 20:30:00,
2013-04-09 16:31:00,85.3,50.4,29.88,South,186,9.0,9.0,30,0.00,,---,0.00,VWS V14.01,2013-04-09 20:31:00,
2013-04-09 16:32:00,85.3,49.5,29.88,SSW,211,11.0,14.0,29,0.00,,---,0.00,VWS V14.01,2013-04-09 20:32:00,
2013-04-09 16:35:00,85.1,49.3,29.88,SSW,194,3.0,11.0,29,0.00,,---,0.00,VWS V14.01,2013-04-09 20:35:00,
2013-04-09 16:36:00,85.1,49.3,29.88,SSW,194,6.0,11.0,29,0.00,,---,0.00,VWS V14.01,2013-04-09 20:36:00,
2013-04-09 16:38:00,84.9,50.0,29.88,SSW,212,15.0,17.0,30,0.00,,---,0.00,VWS V14.01,2013-04-09 20:38:00,
2013-04-09 16:40:00,84.7,49.0,29.88,South,169,3.0,10.0,29,0.00,,---,0.00,VWS V14.01,2013-04-09 20:40:00,
2013-04-09 16:41:00,84.7,49.0,29.88,South,184,10.0,10.0,29,0.00,,---,0.00,VWS V14.01,2013-04-09 20:41:00,
2013-04-09 16:43:00,84.5,49.7,29.88,SE,138,3.0,3.0,30,0.00,,---,0.00,VWS V14.01,2013-04-09 20:43:00,
2013-04-09 16:45:00,84.3,49.5,29.88,South,182,7.0,7.0,30,0.00,,---,0.00,VWS V14.01,2013-04-09 20:45:00,
2013-04-09 16:46:00,84.3,49.5,29.88,SSW,200,2.0,6.0,30,0.00,,---,0.00,VWS V14.01,2013-04-09 20:46:00,
2013-04-09 16:48:00,84.3,49.5,29.88,SSE,157,6.0,9.0,30,0.00,,---,0.00,VWS V14.01,2013-04-09 20:48:00,
2013-04-09 16:50:00,84.1,49.3,29.88,SSW,196,3.0,5.0,30,0.00,,---,0.00,VWS V14.01,2013-04-09 20:50:00,
2013-04-09 16:52:00,84.1,50.2,29.88,SSW,202,1.0,9.0,31,0.00,,---,0.00,VWS V14.01,2013-04-09 20:52:00,
2013-04-09 16:53:00,84.1,50.2,29.88,SSE,167,2.0,3.0,31,0.00,,---,0.00,VWS V14.01,2013-04-09 20:53:00,
2013-04-09 16:56:00,84.1,50.2,29.88,SSE,165,6.0,6.0,31,0.00,,---,0.00,VWS V14.01,2013-04-09 20:56:00,
2013-04-09 16:57:00,84.1,49.3,29.88,South,175,3.0,6.0,30,0.00,,---,0.00,VWS V14.01,2013-04-09 20:57:00,
2013-04-09 16:58:00,84.1,50.2,29.88,SSE,163,6.0,10.0,31,0.00,,---,0.00,VWS V14.01,2013-04-09 20:58:00,
2013-04-09 17:02:00,84.0,50.2,29.87,SSE,159,6.0,7.0,31,0.00,,---,0.00,VWS V14.01,2013-04-09 21:02:00,
2013-04-09 17:03:00,84.0,50.2,29.87,ESE,113,9.0,11.0,31,0.00,,---,0.00,VWS V14.01,2013-04-09 21:03:00,
2013-04-09 17:07:00,84.0,50.2,29.87,South,185,4.0,4.0,31,0.00,,---,0.00,VWS V14.01,2013-04-09 21:07:00,
2013-04-09 17:08:00,84.0,50.2,29.87,SSE,163,6.0,13.0,31,0.00,,---,0.00,VWS V14.01,2013-04-09 21:08:00,
2013-04-09 17:12:00,83.8,50.0,29.87,ESE,111,5.0,9.0,31,0.00,,---,0.00,VWS V14.01,2013-04-09 21:12:00,
2013-04-09 17:13:00,83.8,50.0,29.87,ESE,113,4.0,9.0,31,0.00,,---,0.00,VWS V14.01,2013-04-09 21:13:00,
2013-04-09 17:14:00,83.8,50.8,29.87,SSE,148,10.0,11.0,32,0.00,,---,0.00,VWS V14.01,2013-04-09 21:14:00,
2013-04-09 17:17:00,83.6,49.8,29.87,South,169,10.0,15.0,31,0.00,,---,0.00,VWS V14.01,2013-04-09 21:17:00,
2013-04-09 17:18:00,83.6,49.8,29.87,South,189,15.0,15.0,31,0.00,,---,0.00,VWS V14.01,2013-04-09 21:18:00,
2013-04-09 17:19:00,83.6,49.8,29.87,SSW,212,10.0,13.0,31,0.00,,---,0.00,VWS V14.01,2013-04-09 21:19:00,
2013-04-09 17:22:00,83.6,49.8,29.87,South,178,12.0,17.0,31,0.00,,---,0.00,VWS V14.01,2013-04-09 21:22:00,
2013-04-09 17:23:00,83.6,49.8,29.87,SSW,202,13.0,16.0,31,0.00,,---,0.00,VWS V14.01,2013-04-09 21:23:00,
2013-04-09 17:25:00,83.4,49.6,29.87,South,180,10.0,12.0,31,0.00,,---,0.00,VWS V14.01,2013-04-09 21:25:00,
2013-04-09 17:28:00,83.4,49.6,29.87,SSE,159,3.0,11.0,31,0.00,,---,0.00,VWS V14.01,2013-04-09 21:28:00,
2013-04-09 17:30:00,83.4,49.6,29.87,South,178,4.0,12.0,31,0.00,,---,0.00,VWS V14.01,2013-04-09 21:30:00,
2013-04-09 17:33:00,83.4,49.6,29.87,SW,224,8.0,9.0,31,0.00,,---,0.00,VWS V14.01,2013-04-09 21:33:00,
2013-04-09 17:36:00,83.4,49.6,29.87,SSW,211,9.0,17.0,31,0.00,,---,0.00,VWS V14.01,2013-04-09 21:36:00,
2013-04-09 17:38:00,83.4,49.6,29.87,SSW,209,11.0,11.0,31,0.00,,---,0.00,VWS V14.01,2013-04-09 21:38:00,
2013-04-09 17:39:00,83.4,49.6,29.87,SSW,201,1.0,12.0,31,0.00,,---,0.00,VWS V14.01,2013-04-09 21:39:00,
2013-04-09 17:41:00,83.4,49.6,29.87,SSE,165,3.0,10.0,31,0.00,,---,0.00,VWS V14.01,2013-04-09 21:41:00,
2013-04-09 17:43:00,83.4,49.6,29.87,SSE,158,3.0,3.0,31,0.00,,---,0.00,VWS V14.01,2013-04-09 21:43:00,
2013-04-09 17:44:00,83.4,50.5,29.87,SW,223,11.0,15.0,32,0.00,,---,0.00,VWS V14.01,2013-04-09 21:44:00,
2013-04-09 17:46:00,83.4,49.6,29.87,SSW,209,7.0,14.0,31,0.00,,---,0.00,VWS V14.01,2013-04-09 21:46:00,
2013-04-09 17:48:00,83.4,49.6,29.87,SSW,200,14.0,14.0,31,0.00,,---,0.00,VWS V14.01,2013-04-09 21:48:00,
2013-04-09 17:49:00,83.4,49.6,29.87,SSW,212,12.0,12.0,31,0.00,,---,0.00,VWS V14.01,2013-04-09 21:49:00,
2013-04-09 17:51:00,83.4,49.6,29.87,SSW,208,5.0,13.0,31,0.00,,---,0.00,VWS V14.01,2013-04-09 21:51:00,
2013-04-09 17:53:00,83.2,50.3,29.87,SW,220,9.0,12.0,32,0.00,,---,0.00,VWS V14.01,2013-04-09 21:53:00,
2013-04-09 17:54:00,83.2,50.3,29.87,South,169,5.0,13.0,32,0.00,,---,0.00,VWS V14.01,2013-04-09 21:54:00,
2013-04-09 17:56:00,83.2,50.3,29.87,SSW,192,12.0,12.0,32,0.00,,---,0.00,VWS V14.01,2013-04-09 21:56:00,
2013-04-09 17:58:00,83.0,51.0,29.87,SSW,195,14.0,16.0,33,0.00,,---,0.00,VWS V14.01,2013-04-09 21:58:00,
2013-04-09 18:00:00,83.0,50.1,29.87,South,183,12.0,14.0,32,0.00,,---,0.00,VWS V14.01,2013-04-09 22:00:00,
2013-04-09 18:01:00,83.0,50.1,29.87,South,178,8.0,8.0,32,0.00,,---,0.00,VWS V14.01,2013-04-09 22:01:00,
2013-04-09 18:03:00,82.8,50.0,29.87,South,184,9.0,10.0,32,0.00,,---,0.00,VWS V14.01,2013-04-09 22:03:00,
2013-04-09 18:05:00,82.8,50.0,29.87,SSE,155,6.0,15.0,32,0.00,,---,0.00,VWS V14.01,2013-04-09 22:05:00,
2013-04-09 18:06:00,82.8,50.0,29.87,SSE,167,3.0,13.0,32,0.00,,---,0.00,VWS V14.01,2013-04-09 22:06:00,
2013-04-09 18:08:00,82.6,49.8,29.87,SW,215,10.0,13.0,32,0.00,,---,0.00,VWS V14.01,2013-04-09 22:08:00,
2013-04-09 18:10:00,82.6,50.6,29.87,South,178,4.0,7.0,33,0.00,,---,0.00,VWS V14.01,2013-04-09 22:10:00,
2013-04-09 18:11:00,82.6,50.6,29.87,South,184,3.0,10.0,33,0.00,,---,0.00,VWS V14.01,2013-04-09 22:11:00,
2013-04-09 18:13:00,82.4,50.4,29.87,SSW,200,16.0,16.0,33,0.00,,---,0.00,VWS V14.01,2013-04-09 22:13:00,
2013-04-09 18:15:00,82.4,50.4,29.87,SSW,207,9.0,11.0,33,0.00,,---,0.00,VWS V14.01,2013-04-09 22:15:00,
2013-04-09 18:17:00,82.4,50.4,29.87,SSW,205,6.0,15.0,33,0.00,,---,0.00,VWS V14.01,2013-04-09 22:17:00,
2013-04-09 18:18:00,82.2,51.1,29.87,SSW,192,9.0,17.0,34,0.00,,---,0.00,VWS V14.01,2013-04-09 22:18:00,
2013-04-09 18:20:00,82.2,50.3,29.87,SSW,197,5.0,10.0,33,0.00,,---,0.00,VWS V14.01,2013-04-09 22:20:00,
2013-04-09 18:22:00,82.2,50.3,29.87,SW,218,14.0,15.0,33,0.00,,---,0.00,VWS V14.01,2013-04-09 22:22:00,
2013-04-09 18:24:00,82.0,50.9,29.87,SSW,208,9.0,9.0,34,0.00,,---,0.00,VWS V14.01,2013-04-09 22:24:00,
2013-04-09 18:25:00,82.0,50.9,29.87,SSW,206,13.0,18.0,34,0.00,,---,0.00,VWS V14.01,2013-04-09 22:25:00,
2013-04-09 18:26:00,82.0,50.9,29.87,SSW,207,14.0,14.0,34,0.00,,---,0.00,VWS V14.01,2013-04-09 22:26:00,
2013-04-09 18:27:00,82.0,50.9,29.87,SW,223,11.0,19.0,34,0.00,,---,0.00,VWS V14.01,2013-04-09 22:27:00,
2013-04-09 18:29:00,81.8,50.7,29.87,SSW,199,4.0,13.0,34,0.00,,---,0.00,VWS V14.01,2013-04-09 22:29:00,
2013-04-09 18:31:00,81.8,50.7,29.87,SSW,213,6.0,8.0,34,0.00,,---,0.00,VWS V14.01,2013-04-09 22:31:00,
2013-04-09 18:32:00,81.8,50.7,29.87,SW,220,1.0,8.0,34,0.00,,---,0.00,VWS V14.01,2013-04-09 22:32:00,
2013-04-09 18:34:00,81.8,50.7,29.87,South,188,2.0,9.0,34,0.00,,---,0.00,VWS V14.01,2013-04-09 22:34:00,
2013-04-09 18:36:00,81.6,50.5,29.87,SW,215,5.0,5.0,34,0.00,,---,0.00,VWS V14.01,2013-04-09 22:36:00,
2013-04-09 18:37:00,81.6,50.5,29.87,SSW,211,17.0,17.0,34,0.00,,---,0.00,VWS V14.01,2013-04-09 22:37:00,
2013-04-09 18:40:00,81.6,50.5,29.87,SSW,194,8.0,9.0,34,0.00,,---,0.00,VWS V14.01,2013-04-09 22:40:00,
2013-04-09 18:41:00,81.4,50.4,29.87,SSW,194,7.0,10.0,34,0.00,,---,0.00,VWS V14.01,2013-04-09 22:41:00,
2013-04-09 18:42:00,81.4,50.4,29.87,South,186,5.0,5.0,34,0.00,,---,0.00,VWS V14.01,2013-04-09 22:42:00,
2013-04-09 18:43:00,81.4,51.2,29.87,SSW,194,8.0,10.0,35,0.00,,---,0.00,VWS V14.01,2013-04-09 22:43:00,
2013-04-09 18:45:00,81.4,51.2,29.87,SSW,200,5.0,6.0,35,0.00,,---,0.00,VWS V14.01,2013-04-09 22:45:00,
2013-04-09 18:46:00,81.2,51.0,29.87,SSW,197,13.0,18.0,35,0.00,,---,0.00,VWS V14.01,2013-04-09 22:46:00,
2013-04-09 18:48:00,81.2,50.2,29.87,SSW,197,14.0,14.0,34,0.00,,---,0.00,VWS V14.01,2013-04-09 22:48:00,
2013-04-09 18:50:00,81.2,51.0,29.87,SSW,209,9.0,9.0,35,0.00,,---,0.00,VWS V14.01,2013-04-09 22:50:00,
2013-04-09 18:51:00,81.1,50.9,29.87,SW,217,5.0,8.0,35,0.00,,---,0.00,VWS V14.01,2013-04-09 22:51:00,
2013-04-09 18:53:00,81.1,50.9,29.87,SSW,201,4.0,5.0,35,0.00,,---,0.00,VWS V14.01,2013-04-09 22:53:00,
2013-04-09 18:55:00,81.1,50.9,29.87,SSW,198,14.0,14.0,35,0.00,,---,0.00,VWS V14.01,2013-04-09 22:55:00,
2013-04-09 18:57:00,80.9,50.7,29.87,SSW,210,7.0,11.0,35,0.00,,---,0.00,VWS V14.01,2013-04-09 22:57:00,
2013-04-09 18:58:00,80.9,50.7,29.87,SW,224,4.0,5.0,35,0.00,,---,0.00,VWS V14.01,2013-04-09 22:58:00,
2013-04-09 19:00:00,80.9,50.7,29.87,SSW,203,6.0,8.0,35,0.00,,---,0.00,VWS V14.01,2013-04-09 23:00:00,
2013-04-09 19:02:00,80.9,50.7,29.87,SW,219,6.0,6.0,35,0.00,,---,0.00,VWS V14.01,2013-04-09 23:02:00,
2013-04-09 19:03:00,80.7,50.5,29.87,SW,214,6.0,7.0,35,0.00,,---,0.00,VWS V14.01,2013-04-09 23:03:00,
2013-04-09 19:05:00,80.7,51.3,29.87,SSW,209,6.0,7.0,36,0.00,,---,0.00,VWS V14.01,2013-04-09 23:05:00,
2013-04-09 19:07:00,80.7,51.3,29.87,SSW,211,4.0,4.0,36,0.00,,---,0.00,VWS V14.01,2013-04-09 23:07:00,
2013-04-09 19:08:00,80.5,51.1,29.87,SSW,211,3.0,5.0,36,0.00,,---,0.00,VWS V14.01,2013-04-09 23:08:00,
2013-04-09 19:10:00,80.5,51.1,29.87,SSW,208,3.0,5.0,36,0.00,,---,0.00,VWS V14.01,2013-04-09 23:10:00,
2013-04-09 19:12:00,80.3,50.9,29.87,SSW,208,4.0,5.0,36,0.00,,---,0.00,VWS V14.01,2013-04-09 23:12:00,
2013-04-09 19:13:00,80.3,50.9,29.87,SSW,208,3.0,4.0,36,0.00,,---,0.00,VWS V14.01,2013-04-09 23:13:00,
2013-04-09 19:15:00,80.3,50.9,29.87,SSW,208,0.0,3.0,36,0.00,,---,0.00,VWS V14.01,2013-04-09 23:15:00,
2013-04-09 19:17:00,80.1,50.8,29.86,SSW,208,5.0,7.0,36,0.00,,---,0.00,VWS V14.01,2013-04-09 23:17:00,
2013-04-09 19:18:00,80.1,51.5,29.86,SSW,205,11.0,11.0,37,0.00,,---,0.00,VWS V14.01,2013-04-09 23:18:00,
2013-04-09 19:19:00,80.1,51.5,29.86,SSW,207,7.0,10.0,37,0.00,,---,0.00,VWS V14.01,2013-04-09 23:19:00,
2013-04-09 19:20:00,79.9,51.3,29.86,SW,223,5.0,9.0,37,0.00,,---,0.00,VWS V14.01,2013-04-09 23:20:00,
2013-04-09 19:22:00,79.9,51.3,29.86,SW,221,7.0,11.0,37,0.00,,---,0.00,VWS V14.01,2013-04-09 23:22:00,
2013-04-09 19:23:00,79.8,51.2,29.86,SSW,209,2.0,7.0,37,0.00,,---,0.00,VWS V14.01,2013-04-09 23:23:00,
2013-04-09 19:24:00,79.8,51.2,29.86,South,190,3.0,8.0,37,0.00,,---,0.00,VWS V14.01,2013-04-09 23:24:00,
2013-04-09 19:25:00,79.8,51.2,29.86,South,188,4.0,6.0,37,0.00,,---,0.00,VWS V14.01,2013-04-09 23:25:00,
2013-04-09 19:27:00,79.6,51.1,29.86,SSW,201,9.0,11.0,37,0.00,,---,0.00,VWS V14.01,2013-04-09 23:27:00,
2013-04-09 19:28:00,79.6,51.1,29.86,SSW,202,1.0,5.0,37,0.00,,---,0.00,VWS V14.01,2013-04-09 23:28:00,
2013-04-09 19:29:00,79.4,50.9,29.86,SSW,204,10.0,10.0,37,0.00,,---,0.00,VWS V14.01,2013-04-09 23:29:00,
2013-04-09 19:30:00,79.4,50.9,29.86,SW,227,5.0,11.0,37,0.00,,---,0.00,VWS V14.01,2013-04-09 23:30:00,
2013-04-09 19:32:00,79.2,50.7,29.87,SW,216,5.0,5.0,37,0.00,,---,0.00,VWS V14.01,2013-04-09 23:32:00,
2013-04-09 19:33:00,79.2,51.4,29.87,SSW,211,5.0,6.0,38,0.00,,---,0.00,VWS V14.01,2013-04-09 23:33:00,
2013-04-09 19:34:00,79.2,51.4,29.87,SSW,212,6.0,10.0,38,0.00,,---,0.00,VWS V14.01,2013-04-09 23:34:00,
2013-04-09 19:35:00,79.2,50.7,29.87,SSW,209,3.0,6.0,37,0.00,,---,0.00,VWS V14.01,2013-04-09 23:35:00,
2013-04-09 19:37:00,79.0,51.2,29.87,SSW,209,4.0,6.0,38,0.00,,---,0.00,VWS V14.01,2013-04-09 23:37:00,
2013-04-09 19:38:00,79.0,51.2,29.87,SSW,209,0.0,3.0,38,0.00,,---,0.00,VWS V14.01,2013-04-09 23:38:00,
2013-04-09 19:39:00,79.0,51.2,29.87,SSW,198,5.0,5.0,38,0.00,,---,0.00,VWS V14.01,2013-04-09 23:39:00,
2013-04-09 19:40:00,78.8,51.1,29.87,SSW,192,4.0,4.0,38,0.00,,---,0.00,VWS V14.01,2013-04-09 23:40:00,
2013-04-09 19:43:00,78.8,51.1,29.87,SSW,192,2.0,5.0,38,0.00,,---,0.00,VWS V14.01,2013-04-09 23:43:00,
2013-04-09 19:44:00,78.6,50.9,29.87,SSW,192,5.0,5.0,38,0.00,,---,0.00,VWS V14.01,2013-04-09 23:44:00,
2013-04-09 19:45:00,78.6,50.9,29.87,South,182,7.0,7.0,38,0.00,,---,0.00,VWS V14.01,2013-04-09 23:45:00,
2013-04-09 19:48:00,78.6,50.9,29.87,South,188,6.0,7.0,38,0.00,,---,0.00,VWS V14.01,2013-04-09 23:48:00,
2013-04-09 19:49:00,78.5,50.8,29.87,SSW,208,8.0,9.0,38,0.00,,---,0.00,VWS V14.01,2013-04-09 23:49:00,
2013-04-09 19:50:00,78.5,50.8,29.87,South,188,5.0,6.0,38,0.00,,---,0.00,VWS V14.01,2013-04-09 23:50:00,
2013-04-09 19:53:00,78.3,50.6,29.87,SSE,160,3.0,3.0,38,0.00,,---,0.00,VWS V14.01,2013-04-09 23:53:00,
2013-04-09 19:54:00,78.3,50.6,29.87,SSE,160,1.0,5.0,38,0.00,,---,0.00,VWS V14.01,2013-04-09 23:54:00,
2013-04-09 19:57:00,78.1,50.5,29.87,SSE,165,2.0,6.0,38,0.00,,---,0.00,VWS V14.01,2013-04-09 23:57:00,
2013-04-09 19:58:00,78.1,51.2,29.87,South,183,0.0,2.0,39,0.00,,---,0.00,VWS V14.01,2013-04-09 23:58:00,
2013-04-09 19:59:00,78.1,51.2,29.87,SSW,211,1.0,6.0,39,0.00,,---,0.00,VWS V14.01,2013-04-09 23:59:00,
2013-04-09 20:02:00,77.9,51.0,29.87,SSW,212,4.0,6.0,39,0.00,,---,0.00,VWS V14.01,2013-04-10 00:02:00,
2013-04-09 20:03:00,77.9,51.0,29.87,SSW,211,2.0,4.0,39,0.00,,---,0.00,VWS V14.01,2013-04-10 00:03:00,
2013-04-09 20:04:00,77.7,50.8,29.87,SSW,211,4.0,7.0,39,0.00,,---,0.00,VWS V14.01,2013-04-10 00:04:00,
2013-04-09 20:07:00,77.7,50.8,29.87,SSW,211,4.0,4.0,39,0.00,,---,0.00,VWS V14.01,2013-04-10 00:07:00,
2013-04-09 20:08:00,77.7,50.8,29.87,SSW,211,4.0,4.0,39,0.00,,---,0.00,VWS V14.01,2013-04-10 00:08:00,
2013-04-09 20:09:00,77.6,50.7,29.87,SSW,211,1.0,4.0,39,0.00,,---,0.00,VWS V14.01,2013-04-10 00:09:00,
2013-04-09 20:12:00,77.4,50.5,29.87,SSW,211,3.0,3.0,39,0.00,,---,0.00,VWS V14.01,2013-04-10 00:12:00,
2013-04-09 20:13:00,77.4,50.5,29.87,SSW,211,3.0,3.0,39,0.00,,---,0.00,VWS V14.01,2013-04-10 00:13:00,
2013-04-09 20:14:00,77.4,50.5,29.87,SSW,211,2.0,3.0,39,0.00,,---,0.00,VWS V14.01,2013-04-10 00:14:00,
2013-04-09 20:17:00,77.2,51.0,29.86,South,186,3.0,7.0,40,0.00,,---,0.00,VWS V14.01,2013-04-10 00:17:00,
2013-04-09 20:18:00,77.2,51.0,29.86,SSW,207,4.0,5.0,40,0.00,,---,0.00,VWS V14.01,2013-04-10 00:18:00,
2013-04-09 20:19:00,77.0,50.9,29.86,SSW,203,5.0,8.0,40,0.00,,---,0.00,VWS V14.01,2013-04-10 00:19:00,
2013-04-09 20:22:00,76.8,50.7,29.86,SSW,195,2.0,3.0,40,0.00,,---,0.00,VWS V14.01,2013-04-10 00:22:00,
2013-04-09 20:23:00,76.8,50.7,29.86,SSW,195,1.0,1.0,40,0.00,,---,0.00,VWS V14.01,2013-04-10 00:23:00,
2013-04-09 20:24:00,76.7,50.6,29.86,SSW,195,1.0,4.0,40,0.00,,---,0.00,VWS V14.01,2013-04-10 00:24:00,
2013-04-09 20:25:00,76.7,50.6,29.86,SSW,195,0.0,4.0,40,0.00,,---,0.00,VWS V14.01,2013-04-10 00:25:00,
2013-04-09 20:27:00,76.7,50.6,29.86,SSW,195,2.0,3.0,40,0.00,,---,0.00,VWS V14.01,2013-04-10 00:27:00,
2013-04-09 20:28:00,76.5,50.4,29.86,SSW,195,6.0,6.0,40,0.00,,---,0.00,VWS V14.01,2013-04-10 00:28:00,
2013-04-09 20:29:00,76.5,51.1,29.86,SSW,195,4.0,7.0,41,0.00,,---,0.00,VWS V14.01,2013-04-10 00:29:00,
2013-04-09 20:30:00,76.5,51.1,29.86,SSW,195,2.0,2.0,41,0.00,,---,0.00,VWS V14.01,2013-04-10 00:30:00,
2013-04-09 20:32:00,76.3,50.9,29.87,SSW,195,4.0,5.0,41,0.00,,---,0.00,VWS V14.01,2013-04-10 00:32:00,
2013-04-09 20:33:00,76.3,50.9,29.87,South,189,0.0,6.0,41,0.00,,---,0.00,VWS V14.01,2013-04-10 00:33:00,
2013-04-09 20:34:00,76.1,50.7,29.87,South,189,1.0,5.0,41,0.00,,---,0.00,VWS V14.01,2013-04-10 00:34:00,
2013-04-09 20:35:00,76.1,50.7,29.87,SSW,201,11.0,11.0,41,0.00,,---,0.00,VWS V14.01,2013-04-10 00:35:00,
2013-04-09 20:37:00,76.0,50.6,29.87,SSW,200,0.0,5.0,41,0.00,,---,0.00,VWS V14.01,2013-04-10 00:37:00,
2013-04-09 20:38:00,76.0,50.6,29.87,SSW,200,0.0,0.0,41,0.00,,---,0.00,VWS V14.01,2013-04-10 00:38:00,
2013-04-09 20:39:00,76.0,50.6,29.87,SSW,200,0.0,4.0,41,0.00,,---,0.00,VWS V14.01,2013-04-10 00:39:00,
2013-04-09 20:40:00,76.0,50.6,29.87,SSW,200,3.0,3.0,41,0.00,,---,0.00,VWS V14.01,2013-04-10 00:40:00,
2013-04-09 20:42:00,75.8,50.5,29.87,SSW,200,4.0,4.0,41,0.00,,---,0.00,VWS V14.01,2013-04-10 00:42:00,
2013-04-09 20:43:00,75.8,51.1,29.87,SSW,198,5.0,5.0,42,0.00,,---,0.00,VWS V14.01,2013-04-10 00:43:00,
2013-04-09 20:44:00,75.6,50.9,29.87,SSW,198,2.0,3.0,42,0.00,,---,0.00,VWS V14.01,2013-04-10 00:44:00,
2013-04-09 20:45:00,75.6,50.9,29.87,SSW,198,0.0,0.0,42,0.00,,---,0.00,VWS V14.01,2013-04-10 00:45:00,
2013-04-09 20:48:00,75.6,50.9,29.87,SSW,198,3.0,4.0,42,0.00,,---,0.00,VWS V14.01,2013-04-10 00:48:00,
2013-04-09 20:49:00,75.4,50.7,29.87,SSW,198,9.0,9.0,42,0.00,,---,0.00,VWS V14.01,2013-04-10 00:49:00,
2013-04-09 20:50:00,75.4,50.7,29.87,SSW,198,4.0,6.0,42,0.00,,---,0.00,VWS V14.01,2013-04-10 00:50:00,
2013-04-09 20:53:00,75.3,51.3,29.87,SSW,198,3.0,5.0,43,0.00,,---,0.00,VWS V14.01,2013-04-10 00:53:00,
2013-04-09 20:54:00,75.3,51.3,29.87,SSW,198,4.0,4.0,43,0.00,,---,0.00,VWS V14.01,2013-04-10 00:54:00,
2013-04-09 20:55:00,75.3,51.3,29.87,SSW,198,1.0,2.0,43,0.00,,---,0.00,VWS V14.01,2013-04-10 00:55:00,
2013-04-09 20:58:00,75.1,51.1,29.87,SSW,198,0.0,0.0,43,0.00,,---,0.00,VWS V14.01,2013-04-10 00:58:00,
2013-04-09 21:00:00,74.9,50.9,29.87,SSW,198,1.0,4.0,43,0.00,,---,0.00,VWS V14.01,2013-04-10 01:00:00,
2013-04-09 21:03:00,74.9,50.9,29.87,SSW,198,2.0,4.0,43,0.00,,---,0.00,VWS V14.01,2013-04-10 01:03:00,
2013-04-09 21:05:00,74.7,50.7,29.87,SSW,198,4.0,5.0,43,0.00,,---,0.00,VWS V14.01,2013-04-10 01:05:00,
2013-04-09 21:08:00,74.6,51.3,29.87,SSW,198,3.0,4.0,44,0.00,,---,0.00,VWS V14.01,2013-04-10 01:08:00,
2013-04-09 21:10:00,74.6,51.3,29.87,SSW,198,0.0,1.0,44,0.00,,---,0.00,VWS V14.01,2013-04-10 01:10:00,
2013-04-09 21:13:00,74.4,51.1,29.87,SSW,198,5.0,5.0,44,0.00,,---,0.00,VWS V14.01,2013-04-10 01:13:00,
2013-04-09 21:14:00,74.4,51.1,29.87,SSW,198,3.0,4.0,44,0.00,,---,0.00,VWS V14.01,2013-04-10 01:14:00,
2013-04-09 21:15:00,74.2,50.9,29.87,SSW,198,0.0,5.0,44,0.00,,---,0.00,VWS V14.01,2013-04-10 01:15:00,
2013-04-09 21:18:00,74.2,50.9,29.87,SSW,198,3.0,5.0,44,0.00,,---,0.00,VWS V14.01,2013-04-10 01:18:00,
2013-04-09 21:19:00,74.0,50.7,29.87,SSW,198,0.0,0.0,44,0.00,,---,0.00,VWS V14.01,2013-04-10 01:19:00,
2013-04-09 21:20:00,74.0,50.7,29.87,SSW,198,2.0,2.0,44,0.00,,---,0.00,VWS V14.01,2013-04-10 01:20:00,
2013-04-09 21:23:00,73.9,51.2,29.87,SSW,198,0.0,0.0,45,0.00,,---,0.00,VWS V14.01,2013-04-10 01:23:00,
2013-04-09 21:24:00,73.9,51.2,29.87,SSW,198,0.0,0.0,45,0.00,,---,0.00,VWS V14.01,2013-04-10 01:24:00,
2013-04-09 21:25:00,73.9,51.2,29.87,SSW,198,2.0,3.0,45,0.00,,---,0.00,VWS V14.01,2013-04-10 01:25:00,
2013-04-09 21:28:00,73.7,51.1,29.87,SSW,198,2.0,4.0,45,0.00,,---,0.00,VWS V14.01,2013-04-10 01:28:00,
2013-04-09 21:29:00,73.7,51.1,29.87,SSW,198,1.0,1.0,45,0.00,,---,0.00,VWS V14.01,2013-04-10 01:29:00,
2013-04-09 21:30:00,73.7,51.1,29.87,SSW,198,0.0,3.0,45,0.00,,---,0.00,VWS V14.01,2013-04-10 01:30:00,
2013-04-09 21:33:00,73.5,50.9,29.87,SSW,198,2.0,5.0,45,0.00,,---,0.00,VWS V14.01,2013-04-10 01:33:00,
2013-04-09 21:34:00,73.3,50.7,29.87,SSW,198,0.0,1.0,45,0.00,,---,0.00,VWS V14.01,2013-04-10 01:34:00,
2013-04-09 21:35:00,73.3,50.7,29.87,SSW,198,0.0,3.0,45,0.00,,---,0.00,VWS V14.01,2013-04-10 01:35:00,
2013-04-09 21:38:00,73.2,50.6,29.87,SSW,198,4.0,5.0,45,0.00,,---,0.00,VWS V14.01,2013-04-10 01:38:00,
2013-04-09 21:39:00,73.2,51.2,29.87,SSW,198,2.0,3.0,46,0.00,,---,0.00,VWS V14.01,2013-04-10 01:39:00,
2013-04-09 21:40:00,73.2,51.2,29.87,SSW,198,3.0,5.0,46,0.00,,---,0.00,VWS V14.01,2013-04-10 01:40:00,
2013-04-09 21:44:00,73.0,51.0,29.87,SSW,198,0.0,3.0,46,0.00,,---,0.00,VWS V14.01,2013-04-10 01:44:00,
2013-04-09 21:45:00,73.0,51.0,29.87,SSW,198,4.0,4.0,46,0.00,,---,0.00,VWS V14.01,2013-04-10 01:45:00,
2013-04-09 21:49:00,72.8,50.8,29.87,SSW,198,4.0,6.0,46,0.00,,---,0.00,VWS V14.01,2013-04-10 01:49:00,
2013-04-09 21:50:00,72.7,50.8,29.87,SSW,198,5.0,6.0,46,0.00,,---,0.00,VWS V14.01,2013-04-10 01:50:00,
2013-04-09 21:51:00,72.7,50.8,29.87,SSW,198,1.0,6.0,46,0.00,,---,0.00,VWS V14.01,2013-04-10 01:51:00,
2013-04-09 21:54:00,72.5,51.2,29.87,SSW,198,3.0,7.0,47,0.00,,---,0.00,VWS V14.01,2013-04-10 01:54:00,
2013-04-09 21:55:00,72.5,51.2,29.87,SSW,197,3.0,4.0,47,0.00,,---,0.00,VWS V14.01,2013-04-10 01:55:00,
2013-04-09 21:56:00,72.5,51.2,29.87,SSW,198,2.0,7.0,47,0.00,,---,0.00,VWS V14.01,2013-04-10 01:56:00,
2013-04-09 21:59:00,72.3,51.0,29.87,SSW,198,5.0,6.0,47,0.00,,---,0.00,VWS V14.01,2013-04-10 01:59:00,
2013-04-09 22:00:00,72.3,51.0,29.87,SSW,197,6.0,6.0,47,0.00,,---,0.00,VWS V14.01,2013-04-10 02:00:00,
2013-04-09 22:01:00,72.3,51.0,29.87,SSW,197,3.0,6.0,47,0.00,,---,0.00,VWS V14.01,2013-04-10 02:01:00,
2013-04-09 22:04:00,72.1,51.3,29.87,SSW,200,6.0,7.0,48,0.00,,---,0.00,VWS V14.01,2013-04-10 02:04:00,
2013-04-09 22:05:00,72.1,51.3,29.87,SSW,200,4.0,4.0,48,0.00,,---,0.00,VWS V14.01,2013-04-10 02:05:00,
2013-04-09 22:06:00,72.1,51.3,29.87,SSW,200,5.0,5.0,48,0.00,,---,0.00,VWS V14.01,2013-04-10 02:06:00,
2013-04-09 22:09:00,72.1,51.3,29.87,SSW,199,4.0,4.0,48,0.00,,---,0.00,VWS V14.01,2013-04-10 02:09:00,
2013-04-09 22:10:00,72.1,51.3,29.87,SSW,205,3.0,8.0,48,0.00,,---,0.00,VWS V14.01,2013-04-10 02:10:00,
2013-04-09 22:11:00,72.0,51.3,29.87,SSW,205,6.0,6.0,48,0.00,,---,0.00,VWS V14.01,2013-04-10 02:11:00,
2013-04-09 22:14:00,72.0,51.3,29.87,SSW,205,8.0,9.0,48,0.00,,---,0.00,VWS V14.01,2013-04-10 02:14:00,
2013-04-09 22:15:00,72.0,51.3,29.87,SSW,198,0.0,6.0,48,0.00,,---,0.00,VWS V14.01,2013-04-10 02:15:00,
2013-04-09 22:17:00,72.0,51.3,29.87,SSW,198,4.0,4.0,48,0.00,,---,0.00,VWS V14.01,2013-04-10 02:17:00,
2013-04-09 22:19:00,72.0,51.3,29.87,SSW,209,3.0,3.0,48,0.00,,---,0.00,VWS V14.01,2013-04-10 02:19:00,
2013-04-09 22:20:00,72.0,51.3,29.87,SSW,209,1.0,3.0,48,0.00,,---,0.00,VWS V14.01,2013-04-10 02:20:00,
2013-04-09 22:22:00,72.0,51.3,29.87,SSW,209,0.0,0.0,48,0.00,,---,0.00,VWS V14.01,2013-04-10 02:22:00,
2013-04-09 22:24:00,72.0,51.3,29.87,SSW,209,3.0,3.0,48,0.00,,---,0.00,VWS V14.01,2013-04-10 02:24:00,
2013-04-09 22:25:00,72.0,51.3,29.87,SSW,208,6.0,8.0,48,0.00,,---,0.00,VWS V14.01,2013-04-10 02:25:00,
2013-04-09 22:27:00,72.0,51.3,29.87,SSW,208,2.0,2.0,48,0.00,,---,0.00,VWS V14.01,2013-04-10 02:27:00,
2013-04-09 22:29:00,71.8,51.1,29.87,SSW,207,6.0,6.0,48,0.00,,---,0.00,VWS V14.01,2013-04-10 02:29:00,
2013-04-09 22:30:00,71.8,51.1,29.87,South,184,3.0,3.0,48,0.00,,---,0.00,VWS V14.01,2013-04-10 02:30:00,
2013-04-09 22:32:00,71.8,51.1,29.87,South,185,3.0,5.0,48,0.00,,---,0.00,VWS V14.01,2013-04-10 02:32:00,
2013-04-09 22:34:00,71.8,51.1,29.87,South,186,5.0,5.0,48,0.00,,---,0.00,VWS V14.01,2013-04-10 02:34:00,
2013-04-09 22:35:00,71.8,51.1,29.87,South,186,3.0,6.0,48,0.00,,---,0.00,VWS V14.01,2013-04-10 02:35:00,
2013-04-09 22:37:00,71.8,51.1,29.87,South,186,5.0,5.0,48,0.00,,---,0.00,VWS V14.01,2013-04-10 02:37:00,
2013-04-09 22:39:00,71.6,50.9,29.87,SSW,203,4.0,5.0,48,0.00,,---,0.00,VWS V14.01,2013-04-10 02:39:00,
2013-04-09 22:40:00,71.6,50.9,29.87,SSW,202,3.0,4.0,48,0.00,,---,0.00,VWS V14.01,2013-04-10 02:40:00,
2013-04-09 22:42:00,71.6,51.5,29.87,SSW,199,3.0,7.0,49,0.00,,---,0.00,VWS V14.01,2013-04-10 02:42:00,
2013-04-09 22:44:00,71.6,51.5,29.87,SSW,198,4.0,7.0,49,0.00,,---,0.00,VWS V14.01,2013-04-10 02:44:00,
2013-04-09 22:45:00,71.6,51.5,29.87,SSW,200,3.0,6.0,49,0.00,,---,0.00,VWS V14.01,2013-04-10 02:45:00,
2013-04-09 22:47:00,71.5,51.4,29.86,SSW,200,2.0,3.0,49,0.00,,---,0.00,VWS V14.01,2013-04-10 02:47:00,
2013-04-09 22:49:00,71.5,51.4,29.86,SSW,200,1.0,4.0,49,0.00,,---,0.00,VWS V14.01,2013-04-10 02:49:00,
2013-04-09 22:50:00,71.5,51.4,29.86,SSW,200,4.0,5.0,49,0.00,,---,0.00,VWS V14.01,2013-04-10 02:50:00,
2013-04-09 22:52:00,71.5,51.4,29.86,SSW,205,5.0,5.0,49,0.00,,---,0.00,VWS V14.01,2013-04-10 02:52:00,
2013-04-09 22:54:00,71.3,51.2,29.86,SSW,207,5.0,6.0,49,0.00,,---,0.00,VWS V14.01,2013-04-10 02:54:00,
2013-04-09 22:55:00,71.3,51.2,29.86,SSW,207,5.0,5.0,49,0.00,,---,0.00,VWS V14.01,2013-04-10 02:55:00,
2013-04-09 22:57:00,71.3,51.2,29.86,SSW,209,4.0,6.0,49,0.00,,---,0.00,VWS V14.01,2013-04-10 02:57:00,